RYR59CR EGPH-GCTS

Flight info

Callsign RYR59CR
Flight time N/A
Altitude 36000
Route GOSAM1C GOSAM DCT TRN DCT DEGOS/M080F360 DCT LASNO T9 BEGAS/N0459F360 DCT RIPEL/N0453F370 DCT ORTIS ORTIS1G
Aircraft B38M/M-V/N

Departure

Time 2026-05-07 06:38
Airport Edinburgh Airport (EGPH)

Arrival

Time N/A
Airport Tenerife Sur Airport (GCTS)
Time Latitude Longitude Altitude Speed Heading
2026-05-07 06:27 55.94744 -3.36861 115 ft 0 kts 267°
2026-05-07 06:27 55.94745 -3.36834 112 ft 4 kts 268°
2026-05-07 06:28 55.94746 -3.36792 112 ft 3 kts 269°
2026-05-07 06:28 55.94740 -3.36751 112 ft 4 kts 315°
2026-05-07 06:28 55.94718 -3.36735 112 ft 4 kts 353°
2026-05-07 06:28 55.94709 -3.36733 112 ft 0 kts 353°
2026-05-07 06:33 55.94716 -3.36735 112 ft 2 kts 352°
2026-05-07 06:33 55.94740 -3.36741 112 ft 6 kts 346°
2026-05-07 06:33 55.94790 -3.36775 114 ft 7 kts 355°
2026-05-07 06:34 55.94829 -3.36780 115 ft 0 kts 358°
2026-05-07 06:34 55.94840 -3.36780 115 ft 3 kts 358°
2026-05-07 06:35 55.94881 -3.36793 115 ft 10 kts 339°
2026-05-07 06:35 55.94962 -3.36802 114 ft 15 kts 44°
2026-05-07 06:35 55.95026 -3.36608 113 ft 22 kts 58°
2026-05-07 06:35 55.95115 -3.36341 113 ft 27 kts 59°
2026-05-07 06:36 55.95213 -3.36052 114 ft 28 kts 58°
2026-05-07 06:36 55.95312 -3.35759 114 ft 28 kts 59°
2026-05-07 06:36 55.95406 -3.35485 115 ft 8 kts 58°
2026-05-07 06:36 55.95451 -3.35422 115 ft 9 kts 14°
2026-05-07 06:37 55.95512 -3.35456 114 ft 10 kts 330°
2026-05-07 06:37 55.95565 -3.35538 115 ft 8 kts 283°
2026-05-07 06:37 55.95546 -3.35638 115 ft 9 kts 240°
2026-05-07 06:37 55.95468 -3.35865 113 ft 55 kts 238°
2026-05-07 06:38 55.95130 -3.36867 114 ft 131 kts 239°
2026-05-07 06:38 55.94546 -3.38564 231 ft 182 kts 237°
2026-05-07 06:38 55.93824 -3.40562 880 ft 203 kts 234°
2026-05-07 06:38 55.93060 -3.42723 1569 ft 204 kts 235°
2026-05-07 06:39 55.92320 -3.44932 2221 ft 215 kts 235°
2026-05-07 06:39 55.91522 -3.47281 2783 ft 229 kts 236°
2026-05-07 06:39 55.90696 -3.49816 3309 ft 242 kts 246°
2026-05-07 06:39 55.90313 -3.52739 4139 ft 244 kts 257°
2026-05-07 06:40 55.90103 -3.54735 4598 ft 249 kts 257°
2026-05-07 06:40 55.89785 -3.57778 5382 ft 251 kts 257°
2026-05-07 06:40 55.89467 -3.60876 5892 ft 256 kts 258°
2026-05-07 06:40 55.89150 -3.64004 5964 ft 256 kts 258°
2026-05-07 06:41 55.88833 -3.67130 5964 ft 256 kts 258°
2026-05-07 06:41 55.88520 -3.70241 6049 ft 253 kts 258°
2026-05-07 06:41 55.88205 -3.73344 6650 ft 257 kts 257°
2026-05-07 06:41 55.87886 -3.76493 7204 ft 260 kts 257°
2026-05-07 06:42 55.87571 -3.79658 7673 ft 255 kts 258°
2026-05-07 06:42 55.87262 -3.82775 7255 ft 259 kts 258°
2026-05-07 06:42 55.86946 -3.85945 6914 ft 259 kts 258°
2026-05-07 06:42 55.86632 -3.89103 6584 ft 258 kts 258°
2026-05-07 06:43 55.86322 -3.92197 6296 ft 257 kts 258°
2026-05-07 06:43 55.86006 -3.95351 6032 ft 254 kts 258°
2026-05-07 06:43 55.85697 -3.98425 5990 ft 252 kts 258°
2026-05-07 06:43 55.85390 -4.01466 5975 ft 253 kts 258°
2026-05-07 06:44 55.85079 -4.04542 5964 ft 253 kts 258°
2026-05-07 06:44 55.84767 -4.07625 5974 ft 253 kts 258°
2026-05-07 06:44 55.84436 -4.10691 5963 ft 252 kts 252°
2026-05-07 06:44 55.83612 -4.13386 5938 ft 248 kts 227°
2026-05-07 06:45 55.82299 -4.15398 5973 ft 251 kts 219°
2026-05-07 06:45 55.80912 -4.17279 5963 ft 251 kts 218°
2026-05-07 06:45 55.79506 -4.19120 5969 ft 251 kts 217°
2026-05-07 06:45 55.78081 -4.20952 6218 ft 254 kts 217°
2026-05-07 06:46 55.76650 -4.22771 7035 ft 253 kts 216°
2026-05-07 06:46 55.75204 -4.24591 7723 ft 257 kts 216°
2026-05-07 06:46 55.73734 -4.26430 8432 ft 260 kts 216°
2026-05-07 06:46 55.72246 -4.28285 9156 ft 262 kts 215°
2026-05-07 06:47 55.70741 -4.30153 9850 ft 266 kts 215°
2026-05-07 06:47 55.69204 -4.32059 10323 ft 277 kts 215°
2026-05-07 06:47 55.67575 -4.34077 10522 ft 296 kts 215°
2026-05-07 06:47 55.65829 -4.36236 10693 ft 315 kts 215°
2026-05-07 06:48 55.63983 -4.38515 10923 ft 331 kts 215°
2026-05-07 06:48 55.62075 -4.40869 11453 ft 335 kts 215°
2026-05-07 06:48 55.60154 -4.43235 12086 ft 339 kts 215°
2026-05-07 06:48 55.58205 -4.45633 12703 ft 343 kts 215°
2026-05-07 06:49 55.56234 -4.48054 13314 ft 348 kts 215°
2026-05-07 06:49 55.54241 -4.50501 13962 ft 350 kts 215°
2026-05-07 06:49 55.52229 -4.52968 14556 ft 353 kts 215°
2026-05-07 06:49 55.50201 -4.55451 15155 ft 357 kts 216°
2026-05-07 06:50 55.48153 -4.57956 15821 ft 358 kts 216°
2026-05-07 06:50 55.46098 -4.60464 16465 ft 361 kts 216°
2026-05-07 06:50 55.44028 -4.62989 17099 ft 363 kts 216°
2026-05-07 06:50 55.41941 -4.65530 17706 ft 366 kts 216°
2026-05-07 06:51 55.39863 -4.68057 18255 ft 369 kts 216°
2026-05-07 06:51 55.37744 -4.70631 18782 ft 372 kts 216°
2026-05-07 06:51 55.35603 -4.73228 19237 ft 376 kts 217°
2026-05-07 06:51 55.33441 -4.75849 19752 ft 378 kts 216°
2026-05-07 06:52 55.31323 -4.78605 20166 ft 381 kts 225°
2026-05-07 06:52 55.29544 -4.82036 20743 ft 380 kts 229°
2026-05-07 06:52 55.27753 -4.85504 21096 ft 387 kts 229°
2026-05-07 06:52 55.25951 -4.89021 21613 ft 388 kts 229°
2026-05-07 06:53 55.24143 -4.92560 22013 ft 393 kts 230°
2026-05-07 06:53 55.22315 -4.96141 22492 ft 395 kts 229°
2026-05-07 06:53 55.20476 -4.99741 22977 ft 397 kts 229°
2026-05-07 06:53 55.18627 -5.03356 23407 ft 400 kts 229°
2026-05-07 06:54 55.16761 -5.06998 23784 ft 403 kts 229°
2026-05-07 06:54 55.14886 -5.10652 24131 ft 406 kts 229°
2026-05-07 06:54 55.12984 -5.14355 24378 ft 412 kts 229°
2026-05-07 06:54 55.11069 -5.18076 24783 ft 413 kts 229°
2026-05-07 06:55 55.09139 -5.21820 25138 ft 415 kts 229°
2026-05-07 06:55 55.07202 -5.25572 25506 ft 417 kts 229°
2026-05-07 06:55 55.05251 -5.29346 25847 ft 419 kts 229°
2026-05-07 06:55 55.03288 -5.33136 26199 ft 421 kts 229°
2026-05-07 06:56 55.01319 -5.36932 26549 ft 424 kts 229°
2026-05-07 06:56 54.99336 -5.40750 26880 ft 426 kts 229°
2026-05-07 06:56 54.97347 -5.44573 27214 ft 428 kts 229°
2026-05-07 06:56 54.95344 -5.48413 27565 ft 429 kts 229°
2026-05-07 06:57 54.93337 -5.52259 27944 ft 430 kts 229°
2026-05-07 06:57 54.91321 -5.56116 28237 ft 432 kts 229°
2026-05-07 06:57 54.89294 -5.59987 28544 ft 434 kts 229°
2026-05-07 06:57 54.87258 -5.63867 28832 ft 436 kts 228°
2026-05-07 06:58 54.85206 -5.67774 29045 ft 440 kts 228°
2026-05-07 06:58 54.83137 -5.71707 29364 ft 441 kts 228°
2026-05-07 06:58 54.81062 -5.75644 29666 ft 443 kts 228°
2026-05-07 06:58 54.78980 -5.79587 30031 ft 443 kts 228°
2026-05-07 06:59 54.76903 -5.83514 30394 ft 442 kts 228°
2026-05-07 06:59 54.74854 -5.87382 30729 ft 441 kts 228°
2026-05-07 06:59 54.72780 -5.91291 31058 ft 440 kts 228°
2026-05-07 06:59 54.70711 -5.95185 31394 ft 440 kts 228°
2026-05-07 07:00 54.68644 -5.99067 31720 ft 439 kts 227°
2026-05-07 07:00 54.66576 -6.02947 32059 ft 438 kts 227°
2026-05-07 07:00 54.64514 -6.06808 32383 ft 437 kts 227°
2026-05-07 07:00 54.62456 -6.10655 32699 ft 436 kts 227°
2026-05-07 07:01 54.60397 -6.14500 33017 ft 436 kts 227°
2026-05-07 07:01 54.58339 -6.18333 33261 ft 436 kts 227°
2026-05-07 07:01 54.56268 -6.22189 33408 ft 439 kts 227°
2026-05-07 07:01 54.54194 -6.26041 33696 ft 439 kts 227°
2026-05-07 07:02 54.52120 -6.29888 33962 ft 439 kts 227°
2026-05-07 07:02 54.50045 -6.33731 34204 ft 438 kts 227°
2026-05-07 07:02 54.47966 -6.37574 34429 ft 438 kts 227°
2026-05-07 07:02 54.45887 -6.41413 34652 ft 438 kts 227°
2026-05-07 07:03 54.43815 -6.45231 34898 ft 437 kts 227°
2026-05-07 07:03 54.41744 -6.49042 35204 ft 435 kts 227°
2026-05-07 07:03 54.39679 -6.52834 35408 ft 435 kts 227°
2026-05-07 07:03 54.37611 -6.56628 35616 ft 435 kts 227°
2026-05-07 07:04 54.35544 -6.60413 35828 ft 435 kts 227°
2026-05-07 07:04 54.33473 -6.64199 35949 ft 436 kts 227°
2026-05-07 07:04 54.29329 -6.71761 35919 ft 436 kts 226°
2026-05-07 07:05 54.25154 -6.79359 35943 ft 439 kts 226°
2026-05-07 07:05 54.20990 -6.86868 35936 ft 438 kts 223°
2026-05-07 07:06 54.18529 -6.89887 35829 ft 435 kts 205°
2026-05-07 07:06 54.15695 -6.91587 36022 ft 431 kts 197°
2026-05-07 07:06 54.12794 -6.93025 35869 ft 437 kts 196°
2026-05-07 07:06 54.09864 -6.94380 35903 ft 435 kts 195°
2026-05-07 07:07 54.03974 -6.96959 35936 ft 438 kts 194°
2026-05-07 07:07 53.98050 -6.99468 35953 ft 440 kts 194°
2026-05-07 07:08 53.92116 -7.01964 35944 ft 439 kts 194°
2026-05-07 07:08 53.86179 -7.04452 35944 ft 439 kts 194°
2026-05-07 07:09 53.80243 -7.06933 35945 ft 439 kts 194°
2026-05-07 07:09 53.74299 -7.09410 35946 ft 441 kts 194°
2026-05-07 07:10 53.68338 -7.11887 35945 ft 441 kts 194°
2026-05-07 07:10 53.62382 -7.14355 35948 ft 441 kts 194°
2026-05-07 07:11 53.56419 -7.16818 35947 ft 441 kts 194°
2026-05-07 07:11 53.50457 -7.19273 35943 ft 441 kts 193°
2026-05-07 07:12 53.44481 -7.21729 35951 ft 442 kts 193°
2026-05-07 07:12 53.38509 -7.24174 35952 ft 441 kts 194°
2026-05-07 07:13 53.32553 -7.26606 35955 ft 441 kts 194°
2026-05-07 07:13 53.26592 -7.29033 35951 ft 441 kts 194°
2026-05-07 07:14 53.20667 -7.31439 35955 ft 441 kts 193°
2026-05-07 07:14 53.14704 -7.33853 35957 ft 441 kts 193°
2026-05-07 07:15 53.08744 -7.36258 35951 ft 441 kts 193°
2026-05-07 07:15 53.02781 -7.38659 35952 ft 441 kts 193°
2026-05-07 07:16 52.96809 -7.41056 35957 ft 443 kts 193°
2026-05-07 07:16 52.90811 -7.43456 35957 ft 443 kts 193°
2026-05-07 07:17 52.84816 -7.45849 35957 ft 443 kts 193°
2026-05-07 07:17 52.78828 -7.48233 35955 ft 443 kts 193°
2026-05-07 07:18 52.72829 -7.50613 35958 ft 444 kts 193°
2026-05-07 07:18 52.66815 -7.52993 35955 ft 444 kts 193°
2026-05-07 07:19 52.60808 -7.55363 35960 ft 444 kts 193°
2026-05-07 07:19 52.54798 -7.57728 35961 ft 444 kts 193°
2026-05-07 07:20 52.48785 -7.60087 35957 ft 445 kts 192°
2026-05-07 07:20 52.42745 -7.62451 35956 ft 446 kts 192°
2026-05-07 07:21 52.36701 -7.64809 35962 ft 447 kts 192°
2026-05-07 07:21 52.30662 -7.67159 35965 ft 446 kts 192°
2026-05-07 07:22 52.24613 -7.69505 35957 ft 447 kts 192°
2026-05-07 07:22 52.18592 -7.71835 35961 ft 448 kts 192°
2026-05-07 07:23 52.12535 -7.74173 35960 ft 447 kts 192°
2026-05-07 07:23 52.06478 -7.76503 35963 ft 447 kts 192°
2026-05-07 07:24 52.00416 -7.78829 35965 ft 448 kts 192°
2026-05-07 07:24 51.94345 -7.81152 35963 ft 448 kts 192°
2026-05-07 07:25 51.85235 -7.84625 35965 ft 448 kts 192°
2026-05-07 07:26 51.79158 -7.86935 35967 ft 448 kts 192°
2026-05-07 07:26 51.73082 -7.89237 35969 ft 448 kts 192°
2026-05-07 07:27 51.67016 -7.91529 35966 ft 447 kts 192°
2026-05-07 07:27 51.61976 -7.93429 35972 ft 448 kts 192°
2026-05-07 07:28 51.55916 -7.95708 35976 ft 448 kts 192°
2026-05-07 07:28 51.49857 -7.97980 35971 ft 446 kts 192°
2026-05-07 07:29 51.43800 -8.00244 35979 ft 447 kts 192°
2026-05-07 07:29 51.37750 -8.02500 35979 ft 447 kts 192°
2026-05-07 07:30 51.31696 -8.04752 35975 ft 446 kts 192°
2026-05-07 07:30 51.25645 -8.06996 35979 ft 446 kts 192°
2026-05-07 07:31 51.19612 -8.09227 35987 ft 446 kts 192°
2026-05-07 07:31 51.13563 -8.11459 35982 ft 445 kts 192°
2026-05-07 07:32 51.07517 -8.13683 35989 ft 446 kts 192°
2026-05-07 07:32 51.01481 -8.15898 35990 ft 445 kts 193°
2026-05-07 07:33 50.95440 -8.18109 35986 ft 445 kts 193°
2026-05-07 07:33 50.89402 -8.20312 35994 ft 446 kts 193°
2026-05-07 07:34 50.83369 -8.22509 35991 ft 445 kts 193°
2026-05-07 07:34 50.77364 -8.24688 35989 ft 445 kts 193°
2026-05-07 07:35 50.71325 -8.26875 36001 ft 446 kts 193°
2026-05-07 07:35 50.65286 -8.29056 35993 ft 445 kts 193°
2026-05-07 07:36 50.59248 -8.31231 35994 ft 445 kts 193°
2026-05-07 07:36 50.53207 -8.33401 36003 ft 445 kts 193°
2026-05-07 07:37 50.47168 -8.35564 35999 ft 445 kts 193°
2026-05-07 07:37 50.41118 -8.37726 36001 ft 446 kts 193°
2026-05-07 07:38 50.35064 -8.39884 36002 ft 446 kts 193°
2026-05-07 07:38 50.29008 -8.42037 35998 ft 446 kts 193°
2026-05-07 07:39 50.22961 -8.44181 35998 ft 446 kts 193°
2026-05-07 07:39 50.16953 -8.46305 36004 ft 446 kts 193°
2026-05-07 07:40 50.10902 -8.48440 36001 ft 446 kts 193°
2026-05-07 07:40 50.04859 -8.50565 36002 ft 445 kts 193°
2026-05-07 07:41 49.98827 -8.52682 36010 ft 445 kts 193°
2026-05-07 07:41 49.92788 -8.54796 36006 ft 445 kts 193°
2026-05-07 07:42 49.86743 -8.56906 36004 ft 445 kts 193°
2026-05-07 07:42 49.80715 -8.59005 36005 ft 444 kts 193°
2026-05-07 07:43 49.74693 -8.61096 36011 ft 444 kts 193°
2026-05-07 07:43 49.68648 -8.63191 36016 ft 446 kts 193°
2026-05-07 07:44 49.62599 -8.65281 36006 ft 445 kts 193°
2026-05-07 07:44 49.56548 -8.67367 36009 ft 445 kts 193°
2026-05-07 07:45 49.50500 -8.69446 36016 ft 445 kts 193°
2026-05-07 07:45 49.44451 -8.71520 36016 ft 445 kts 193°
2026-05-07 07:46 49.38404 -8.73589 36014 ft 445 kts 193°
2026-05-07 07:46 49.32349 -8.75655 36013 ft 446 kts 192°
2026-05-07 07:47 49.26294 -8.77716 36012 ft 446 kts 192°
2026-05-07 07:47 49.20279 -8.79758 36016 ft 446 kts 192°
2026-05-07 07:48 49.14228 -8.81807 36017 ft 445 kts 192°
2026-05-07 07:48 49.08179 -8.83851 36016 ft 445 kts 192°
2026-05-07 07:49 49.02123 -8.85893 36011 ft 447 kts 192°
2026-05-07 07:49 48.96033 -8.87941 36013 ft 448 kts 193°
2026-05-07 07:50 48.89939 -8.89985 36022 ft 449 kts 193°
2026-05-07 07:50 48.83840 -8.92026 36017 ft 449 kts 193°
2026-05-07 07:51 48.77747 -8.94060 36018 ft 449 kts 193°
2026-05-07 07:51 48.71645 -8.96092 36015 ft 449 kts 193°
2026-05-07 07:52 48.65545 -8.98117 36018 ft 448 kts 193°
2026-05-07 07:52 48.59425 -8.99958 35971 ft 449 kts 183°
2026-05-07 07:52 48.56318 -8.99933 36075 ft 444 kts 181°
2026-05-07 07:53 48.53213 -8.99967 36036 ft 449 kts 181°
2026-05-07 07:53 48.46969 -8.99997 36026 ft 449 kts 180°
2026-05-07 07:54 48.40759 -9.00000 36016 ft 449 kts 180°
2026-05-07 07:54 48.34508 -9.00000 36015 ft 449 kts 180°
2026-05-07 07:55 48.28256 -9.00001 36014 ft 449 kts 181°
2026-05-07 07:55 48.22010 -9.00000 36017 ft 449 kts 181°
2026-05-07 07:56 48.15765 -9.00000 36016 ft 449 kts 181°
2026-05-07 07:56 48.09517 -9.00000 36018 ft 449 kts 181°
2026-05-07 07:57 48.03260 -9.00000 36017 ft 449 kts 181°
2026-05-07 07:57 47.97004 -9.00000 36019 ft 449 kts 181°
2026-05-07 07:58 47.90751 -9.00000 36016 ft 449 kts 181°
2026-05-07 07:58 47.84498 -9.00000 36009 ft 449 kts 181°
2026-05-07 07:59 47.78247 -9.00000 36013 ft 449 kts 181°
2026-05-07 07:59 47.71994 -9.00000 36014 ft 449 kts 181°
2026-05-07 08:00 47.65784 -9.00000 36007 ft 449 kts 181°
2026-05-07 08:00 47.59525 -9.00000 36018 ft 450 kts 181°
2026-05-07 08:01 47.53264 -9.00000 36015 ft 450 kts 181°
2026-05-07 08:01 47.47001 -9.00000 36015 ft 450 kts 181°
2026-05-07 08:02 47.40736 -9.00000 36012 ft 451 kts 182°
2026-05-07 08:02 47.34460 -9.00000 36016 ft 451 kts 182°
2026-05-07 08:03 47.28188 -9.00000 36016 ft 451 kts 181°
2026-05-07 08:03 47.21913 -9.00000 36007 ft 451 kts 182°
2026-05-07 08:04 47.15632 -9.00000 36013 ft 452 kts 182°
2026-05-07 08:04 47.09343 -9.00000 36010 ft 452 kts 182°
2026-05-07 08:05 47.03058 -9.00000 36000 ft 452 kts 182°
2026-05-07 08:05 46.96805 -9.00000 36015 ft 453 kts 182°
2026-05-07 08:06 46.90456 -9.00000 36014 ft 453 kts 182°
2026-05-07 08:06 46.84155 -9.00000 36019 ft 453 kts 182°
2026-05-07 08:07 46.77866 -9.00000 36024 ft 456 kts 182°
2026-05-07 08:07 46.71509 -9.00000 36007 ft 456 kts 182°
2026-05-07 08:08 46.65152 -9.00000 36005 ft 456 kts 182°
2026-05-07 08:08 46.58802 -9.00000 35996 ft 457 kts 182°
2026-05-07 08:09 46.52431 -9.00000 36015 ft 458 kts 182°
2026-05-07 08:09 46.46060 -9.00000 36006 ft 457 kts 182°
2026-05-07 08:10 46.39695 -9.00000 36005 ft 457 kts 182°
2026-05-07 08:10 46.33331 -9.00000 36001 ft 457 kts 182°
2026-05-07 08:11 46.26964 -9.00000 36002 ft 457 kts 182°
2026-05-07 08:11 46.20597 -9.00000 35993 ft 458 kts 182°
2026-05-07 08:12 46.14263 -9.00000 36002 ft 459 kts 182°
2026-05-07 08:12 46.07882 -9.00000 36013 ft 459 kts 182°
2026-05-07 08:13 46.01492 -9.00000 36002 ft 459 kts 182°
2026-05-07 08:13 45.95093 -9.00000 36008 ft 461 kts 182°
2026-05-07 08:14 45.88678 -9.00000 36003 ft 461 kts 182°
2026-05-07 08:14 45.82265 -9.00000 36006 ft 461 kts 182°
2026-05-07 08:15 45.75849 -9.00000 36006 ft 462 kts 182°
2026-05-07 08:15 45.70508 -9.00000 36000 ft 462 kts 182°
2026-05-07 08:16 45.64081 -9.00000 36000 ft 462 kts 182°
2026-05-07 08:16 45.57650 -9.00000 35998 ft 463 kts 182°
2026-05-07 08:17 45.51183 -9.00000 36008 ft 466 kts 183°
2026-05-07 08:17 45.44697 -9.00000 35995 ft 466 kts 183°
2026-05-07 08:18 45.38210 -9.00000 35990 ft 467 kts 183°
2026-05-07 08:18 45.31711 -9.00000 35991 ft 467 kts 183°
2026-05-07 08:19 45.25211 -9.00000 35992 ft 467 kts 182°
2026-05-07 08:19 45.18711 -9.00000 35987 ft 467 kts 182°
2026-05-07 08:20 45.12204 -9.00000 35988 ft 467 kts 182°
2026-05-07 08:20 45.05699 -9.00000 35990 ft 467 kts 182°
2026-05-07 08:21 44.99304 -9.00917 35884 ft 457 kts 204°
2026-05-07 08:21 44.96431 -9.02732 36052 ft 452 kts 208°
2026-05-07 08:21 44.93567 -9.04627 35953 ft 457 kts 208°
2026-05-07 08:22 44.87849 -9.08542 35994 ft 458 kts 209°
2026-05-07 08:22 44.82144 -9.12517 35976 ft 457 kts 209°
2026-05-07 08:23 44.76446 -9.16493 35974 ft 457 kts 210°
2026-05-07 08:23 44.70752 -9.20457 35973 ft 457 kts 210°
2026-05-07 08:24 44.65091 -9.24389 35972 ft 457 kts 210°
2026-05-07 08:24 44.59396 -9.28336 35977 ft 457 kts 209°
2026-05-07 08:25 44.53688 -9.32284 35974 ft 457 kts 209°
2026-05-07 08:25 44.47985 -9.36220 35978 ft 457 kts 209°
2026-05-07 08:26 44.39420 -9.42115 35973 ft 457 kts 209°
2026-05-07 08:26 44.33713 -9.46032 35968 ft 457 kts 209°
2026-05-07 08:27 44.28012 -9.49936 35969 ft 456 kts 209°
2026-05-07 08:27 44.22317 -9.53828 35971 ft 456 kts 209°
2026-05-07 08:28 44.16619 -9.57713 35965 ft 456 kts 209°
2026-05-07 08:28 44.10915 -9.61594 35967 ft 456 kts 209°
2026-05-07 08:29 44.05210 -9.65468 35965 ft 456 kts 209°
2026-05-07 08:29 43.99506 -9.69333 35958 ft 456 kts 209°
2026-05-07 08:30 43.93790 -9.73196 35961 ft 457 kts 209°
2026-05-07 08:30 43.88110 -9.77027 35960 ft 457 kts 209°
2026-05-07 08:31 43.82393 -9.80876 35960 ft 457 kts 209°
2026-05-07 08:31 43.76675 -9.84717 35953 ft 457 kts 210°
2026-05-07 08:32 43.70944 -9.88558 35962 ft 458 kts 210°
2026-05-07 08:32 43.65209 -9.92394 35959 ft 458 kts 210°
2026-05-07 08:33 43.59470 -9.96224 35959 ft 458 kts 210°
2026-05-07 08:33 43.53721 -10.00052 35969 ft 459 kts 210°
2026-05-07 08:34 43.47975 -10.03871 35965 ft 458 kts 210°
2026-05-07 08:34 43.42228 -10.07683 35960 ft 459 kts 210°
2026-05-07 08:35 43.36513 -10.11465 35953 ft 459 kts 210°
2026-05-07 08:35 43.30759 -10.15264 35959 ft 459 kts 210°
2026-05-07 08:36 43.24999 -10.19060 35958 ft 459 kts 210°
2026-05-07 08:36 43.19245 -10.22844 35953 ft 458 kts 210°
2026-05-07 08:37 43.13499 -10.26614 35956 ft 458 kts 210°
2026-05-07 08:37 43.07753 -10.30377 35962 ft 458 kts 210°
2026-05-07 08:38 43.01999 -10.34137 35961 ft 458 kts 210°
2026-05-07 08:38 42.96248 -10.37887 35963 ft 458 kts 210°
2026-05-07 08:39 42.90492 -10.41633 35961 ft 458 kts 210°
2026-05-07 08:39 42.84736 -10.45371 35959 ft 458 kts 210°
2026-05-07 08:40 42.78975 -10.49104 35963 ft 458 kts 210°
2026-05-07 08:40 42.73212 -10.52831 35944 ft 458 kts 210°
2026-05-07 08:41 42.67452 -10.56548 35959 ft 458 kts 210°
2026-05-07 08:41 42.61740 -10.60227 35957 ft 456 kts 210°
2026-05-07 08:42 42.56002 -10.63915 35957 ft 456 kts 210°
2026-05-07 08:42 42.50269 -10.67594 35944 ft 456 kts 210°
2026-05-07 08:43 42.44535 -10.71266 35955 ft 456 kts 210°
2026-05-07 08:43 42.38802 -10.74930 35958 ft 456 kts 210°
2026-05-07 08:44 42.33069 -10.78586 35958 ft 455 kts 210°
2026-05-07 08:44 42.27322 -10.82211 35961 ft 456 kts 209°
2026-05-07 08:45 42.21549 -10.85781 35962 ft 456 kts 210°
2026-05-07 08:45 42.15775 -10.89354 35967 ft 456 kts 210°
2026-05-07 08:46 42.10050 -10.92890 35961 ft 456 kts 210°
2026-05-07 08:46 42.04294 -10.96439 35963 ft 454 kts 210°
2026-05-07 08:47 41.98558 -10.99968 35953 ft 453 kts 210°
2026-05-07 08:47 41.92824 -11.03489 35964 ft 453 kts 210°
2026-05-07 08:48 41.87095 -11.07001 35941 ft 453 kts 210°
2026-05-07 08:48 41.81362 -11.10507 35956 ft 453 kts 210°
2026-05-07 08:49 41.75634 -11.14003 35957 ft 452 kts 210°
2026-05-07 08:49 41.69896 -11.17499 35959 ft 452 kts 210°
2026-05-07 08:50 41.64168 -11.20982 35947 ft 452 kts 210°
2026-05-07 08:50 41.58434 -11.24461 35957 ft 452 kts 210°
2026-05-07 08:51 41.52706 -11.27931 35962 ft 452 kts 210°
2026-05-07 08:51 41.46976 -11.31394 35966 ft 452 kts 210°
2026-05-07 08:52 41.41265 -11.34840 35939 ft 449 kts 210°
2026-05-07 08:52 41.35602 -11.38249 35962 ft 450 kts 210°
2026-05-07 08:53 41.29896 -11.41678 35961 ft 450 kts 210°
2026-05-07 08:53 41.24189 -11.45101 35962 ft 450 kts 210°
2026-05-07 08:54 41.18483 -11.48517 35947 ft 450 kts 210°
2026-05-07 08:54 41.12781 -11.51924 35957 ft 450 kts 210°
2026-05-07 08:55 41.07079 -11.55324 35956 ft 449 kts 210°
2026-05-07 08:55 41.01376 -11.58719 35962 ft 449 kts 210°
2026-05-07 08:56 40.95675 -11.62107 35950 ft 449 kts 210°
2026-05-07 08:56 40.89972 -11.65488 35961 ft 449 kts 210°
2026-05-07 08:57 40.84266 -11.68865 35964 ft 449 kts 210°
2026-05-07 08:57 40.78562 -11.72234 35967 ft 449 kts 210°
2026-05-07 08:58 40.72858 -11.75597 35951 ft 449 kts 210°
2026-05-07 08:58 40.67164 -11.78948 35966 ft 448 kts 210°
2026-05-07 08:59 40.61511 -11.82269 35965 ft 448 kts 210°
2026-05-07 08:59 40.55817 -11.85607 35964 ft 448 kts 210°
2026-05-07 09:00 40.50132 -11.88935 35952 ft 447 kts 210°
2026-05-07 09:00 40.44440 -11.92259 35968 ft 447 kts 210°
2026-05-07 09:01 40.38756 -11.95573 35965 ft 447 kts 210°
2026-05-07 09:01 40.33072 -11.98881 35964 ft 447 kts 210°
2026-05-07 09:02 40.27383 -12.02185 35947 ft 447 kts 210°
2026-05-07 09:02 40.21713 -12.05472 35964 ft 444 kts 210°
2026-05-07 09:03 40.17026 -12.08186 35965 ft 442 kts 210°
2026-05-07 09:03 40.10482 -12.11967 35968 ft 443 kts 210°
2026-05-07 09:04 40.05757 -12.14692 35967 ft 442 kts 210°
2026-05-07 09:04 40.00122 -12.17936 35969 ft 443 kts 210°
2026-05-07 09:05 39.94526 -12.21153 35971 ft 442 kts 210°
2026-05-07 09:05 39.88894 -12.24383 35971 ft 442 kts 210°
2026-05-07 09:06 39.83260 -12.27610 35971 ft 442 kts 210°
2026-05-07 09:06 39.77629 -12.30829 35976 ft 442 kts 210°
2026-05-07 09:07 39.72000 -12.34041 35980 ft 442 kts 210°
2026-05-07 09:07 39.66369 -12.37248 35977 ft 442 kts 210°
2026-05-07 09:08 39.60740 -12.40449 35975 ft 442 kts 210°
2026-05-07 09:08 39.55139 -12.43628 35972 ft 436 kts 210°
2026-05-07 09:09 39.49577 -12.46779 35975 ft 436 kts 210°
2026-05-07 09:09 39.44011 -12.49927 35980 ft 436 kts 210°
2026-05-07 09:10 39.38447 -12.53068 35978 ft 436 kts 210°
2026-05-07 09:10 39.32890 -12.56200 35972 ft 436 kts 210°
2026-05-07 09:11 39.27333 -12.59327 35981 ft 436 kts 210°
2026-05-07 09:11 39.21815 -12.62426 35978 ft 435 kts 210°
2026-05-07 09:12 39.16259 -12.65541 35982 ft 435 kts 210°
2026-05-07 09:12 39.10700 -12.68652 35960 ft 435 kts 210°
2026-05-07 09:13 39.05166 -12.71745 35979 ft 433 kts 210°
2026-05-07 09:13 38.99635 -12.74830 35979 ft 433 kts 210°
2026-05-07 09:14 38.94104 -12.77909 35988 ft 432 kts 210°
2026-05-07 09:14 38.88620 -12.80958 35982 ft 428 kts 210°
2026-05-07 09:15 38.83152 -12.83993 35988 ft 427 kts 210°
2026-05-07 09:15 38.77701 -12.87013 35989 ft 427 kts 210°
2026-05-07 09:16 38.72245 -12.90030 35986 ft 427 kts 210°
2026-05-07 09:16 38.66828 -12.93022 35989 ft 427 kts 210°
2026-05-07 09:17 38.61372 -12.96030 35966 ft 427 kts 210°
2026-05-07 09:17 38.55924 -12.99028 35986 ft 426 kts 210°
2026-05-07 09:18 38.50481 -13.02018 35991 ft 426 kts 210°
2026-05-07 09:18 38.45036 -13.05005 35994 ft 426 kts 210°
2026-05-07 09:19 38.39588 -13.07988 35993 ft 426 kts 210°
2026-05-07 09:19 38.34143 -13.10966 35993 ft 426 kts 210°
2026-05-07 09:20 38.28702 -13.13935 35988 ft 425 kts 210°
2026-05-07 09:20 38.23280 -13.16890 35990 ft 423 kts 210°
2026-05-07 09:21 38.17865 -13.19836 35995 ft 423 kts 210°
2026-05-07 09:21 38.12446 -13.22780 35983 ft 423 kts 210°
2026-05-07 09:22 38.07030 -13.25717 35994 ft 423 kts 210°
2026-05-07 09:22 38.01612 -13.28650 35992 ft 423 kts 210°
2026-05-07 09:23 37.96199 -13.31576 35995 ft 423 kts 210°
2026-05-07 09:23 37.90780 -13.34501 35996 ft 423 kts 210°
2026-05-07 09:24 37.85404 -13.37398 36001 ft 422 kts 210°
2026-05-07 09:24 37.80000 -13.40305 35998 ft 422 kts 210°
2026-05-07 09:25 37.74601 -13.43204 35998 ft 422 kts 210°
2026-05-07 09:25 37.69194 -13.46104 35996 ft 422 kts 210°
2026-05-07 09:26 37.63790 -13.48997 35999 ft 422 kts 210°
2026-05-07 09:26 37.58392 -13.51883 36008 ft 420 kts 210°
2026-05-07 09:27 37.53009 -13.54756 36001 ft 420 kts 210°
2026-05-07 09:28 37.44928 -13.59060 36005 ft 420 kts 210°
2026-05-07 09:28 37.39543 -13.61923 35972 ft 420 kts 210°
2026-05-07 09:29 37.34158 -13.64781 36002 ft 420 kts 210°
2026-05-07 09:29 37.28776 -13.67634 36003 ft 420 kts 210°
2026-05-07 09:30 37.23396 -13.70480 36006 ft 420 kts 210°
2026-05-07 09:30 37.18014 -13.73323 36010 ft 419 kts 210°
2026-05-07 09:31 37.12667 -13.76144 35987 ft 419 kts 210°
2026-05-07 09:31 37.07299 -13.78971 36006 ft 419 kts 210°
2026-05-07 09:32 37.01927 -13.81796 36010 ft 419 kts 210°
2026-05-07 09:32 36.96548 -13.84620 36007 ft 419 kts 210°
2026-05-07 09:33 36.91188 -13.87430 36007 ft 416 kts 210°
2026-05-07 09:33 36.85865 -13.90217 36010 ft 415 kts 210°
2026-05-07 09:34 36.80540 -13.93000 36012 ft 415 kts 210°
2026-05-07 09:34 36.75210 -13.95782 36010 ft 415 kts 210°
2026-05-07 09:35 36.69889 -13.98554 36011 ft 415 kts 210°
2026-05-07 09:35 36.64566 -14.01324 36014 ft 415 kts 210°
2026-05-07 09:36 36.59273 -14.04074 36017 ft 415 kts 210°
2026-05-07 09:36 36.53952 -14.06834 36015 ft 414 kts 210°
2026-05-07 09:37 36.48631 -14.09590 36015 ft 414 kts 210°
2026-05-07 09:37 36.43308 -14.12343 36019 ft 414 kts 210°
2026-05-07 09:38 36.37983 -14.15093 35993 ft 415 kts 210°
2026-05-07 09:38 36.32639 -14.17849 36024 ft 416 kts 210°
2026-05-07 09:39 36.27292 -14.20602 36022 ft 416 kts 210°
2026-05-07 09:39 36.21951 -14.23348 36023 ft 413 kts 210°
2026-05-07 09:40 36.16659 -14.26065 36022 ft 412 kts 210°
2026-05-07 09:40 36.11365 -14.28779 35994 ft 412 kts 210°
2026-05-07 09:41 36.06060 -14.31494 36016 ft 413 kts 210°
2026-05-07 09:41 36.00751 -14.34208 36017 ft 412 kts 210°
2026-05-07 09:42 35.95449 -14.36913 36016 ft 412 kts 210°
2026-05-07 09:42 35.90146 -14.39616 36026 ft 412 kts 210°
2026-05-07 09:43 35.84878 -14.42297 36012 ft 413 kts 210°
2026-05-07 09:43 35.79559 -14.45000 36023 ft 413 kts 210°
2026-05-07 09:44 35.74245 -14.47696 36027 ft 413 kts 210°
2026-05-07 09:44 35.68931 -14.50389 36025 ft 413 kts 210°
2026-05-07 09:45 35.63617 -14.53078 36028 ft 413 kts 210°
2026-05-07 09:45 35.58299 -14.55764 36014 ft 414 kts 210°
2026-05-07 09:46 35.52966 -14.58455 36033 ft 413 kts 210°
2026-05-07 09:46 35.47663 -14.61126 36026 ft 411 kts 210°
2026-05-07 09:47 35.42371 -14.63788 36031 ft 411 kts 210°
2026-05-07 09:47 35.37077 -14.66448 36035 ft 411 kts 210°
2026-05-07 09:48 35.31778 -14.69105 36016 ft 412 kts 210°
2026-05-07 09:48 35.26476 -14.71762 36030 ft 412 kts 210°
2026-05-07 09:49 35.21169 -14.74416 36035 ft 412 kts 210°
2026-05-07 09:49 35.15864 -14.77066 36034 ft 412 kts 209°
2026-05-07 09:50 35.10560 -14.79712 36036 ft 412 kts 209°
2026-05-07 09:50 35.06155 -14.81906 36027 ft 412 kts 209°
2026-05-07 09:51 35.00849 -14.84546 36030 ft 412 kts 209°
2026-05-07 09:51 34.94681 -14.87610 36040 ft 412 kts 209°
2026-05-07 09:52 34.90234 -14.89815 36037 ft 412 kts 209°
2026-05-07 09:52 34.84964 -14.92427 36037 ft 411 kts 209°
2026-05-07 09:53 34.79663 -14.95049 36034 ft 411 kts 209°
2026-05-07 09:53 34.74379 -14.97660 36042 ft 409 kts 209°
2026-05-07 09:54 34.69097 -15.00265 36043 ft 410 kts 209°
2026-05-07 09:54 34.63814 -15.02868 36045 ft 409 kts 209°
2026-05-07 09:55 34.58530 -15.05468 36048 ft 409 kts 209°
2026-05-07 09:55 34.53244 -15.08065 36034 ft 411 kts 209°
2026-05-07 09:56 34.47929 -15.10673 36046 ft 412 kts 209°
2026-05-07 09:56 34.42658 -15.13255 36046 ft 411 kts 209°
2026-05-07 09:57 34.37351 -15.15852 36045 ft 411 kts 209°
2026-05-07 09:57 34.32040 -15.18447 36048 ft 412 kts 209°
2026-05-07 09:58 34.26727 -15.21040 36011 ft 413 kts 209°
2026-05-07 09:58 34.21378 -15.23647 36049 ft 415 kts 209°
2026-05-07 09:59 34.16031 -15.26248 36050 ft 414 kts 209°
2026-05-07 09:59 34.10682 -15.28848 36046 ft 414 kts 209°
2026-05-07 10:00 34.05334 -15.31443 36050 ft 414 kts 209°
2026-05-07 10:00 33.99988 -15.34034 36032 ft 415 kts 208°
2026-05-07 10:01 33.94621 -15.36631 36050 ft 416 kts 208°
2026-05-07 10:01 33.89254 -15.39225 36049 ft 416 kts 208°
2026-05-07 10:02 33.83914 -15.41803 36048 ft 416 kts 208°
2026-05-07 10:02 33.78548 -15.44390 36049 ft 416 kts 208°
2026-05-07 10:03 33.73173 -15.46977 36022 ft 416 kts 208°
2026-05-07 10:03 33.67788 -15.49565 36051 ft 417 kts 208°
2026-05-07 10:04 33.62400 -15.52152 36058 ft 417 kts 208°
2026-05-07 10:04 33.57011 -15.54736 36062 ft 417 kts 208°
2026-05-07 10:05 33.51622 -15.57316 36054 ft 417 kts 208°
2026-05-07 10:05 33.46236 -15.59891 36035 ft 417 kts 208°
2026-05-07 10:06 33.40834 -15.62470 36055 ft 418 kts 208°
2026-05-07 10:06 33.35465 -15.65030 36056 ft 418 kts 208°
2026-05-07 10:07 33.30058 -15.67605 36061 ft 418 kts 208°
2026-05-07 10:07 33.24648 -15.70178 36059 ft 418 kts 208°
2026-05-07 10:08 33.19239 -15.72746 36031 ft 419 kts 208°
2026-05-07 10:08 33.13803 -15.75325 36062 ft 421 kts 208°
2026-05-07 10:09 33.08355 -15.77905 36060 ft 421 kts 208°
2026-05-07 10:09 33.02911 -15.80480 36062 ft 421 kts 208°
2026-05-07 10:10 32.97467 -15.83052 36064 ft 421 kts 208°
2026-05-07 10:10 32.92022 -15.85621 36029 ft 421 kts 208°
2026-05-07 10:11 32.86558 -15.88195 36066 ft 423 kts 208°
2026-05-07 10:11 32.81127 -15.90751 36064 ft 422 kts 208°
2026-05-07 10:12 32.75659 -15.93320 36066 ft 422 kts 208°
2026-05-07 10:12 32.70195 -15.95884 36067 ft 422 kts 208°
2026-05-07 10:13 32.64726 -15.98448 36040 ft 422 kts 208°
2026-05-07 10:13 32.59233 -16.01019 36062 ft 427 kts 208°
2026-05-07 10:14 32.53706 -16.03602 36072 ft 427 kts 208°
2026-05-07 10:14 32.48171 -16.06186 36065 ft 427 kts 208°
2026-05-07 10:15 32.42639 -16.08766 36070 ft 427 kts 208°
2026-05-07 10:15 32.37109 -16.11341 36070 ft 427 kts 208°
2026-05-07 10:16 32.31580 -16.13912 36077 ft 427 kts 208°
2026-05-07 10:16 32.26047 -16.16483 36071 ft 427 kts 208°
2026-05-07 10:17 32.20515 -16.19049 36073 ft 427 kts 208°
2026-05-07 10:17 32.14982 -16.21612 36079 ft 427 kts 208°
2026-05-07 10:18 32.09448 -16.24173 36044 ft 427 kts 208°
2026-05-07 10:18 32.03896 -16.26738 36085 ft 429 kts 208°
2026-05-07 10:19 31.98339 -16.29302 36076 ft 429 kts 208°
2026-05-07 10:19 31.92784 -16.31862 36077 ft 429 kts 208°
2026-05-07 10:20 31.87263 -16.34403 36076 ft 429 kts 208°
2026-05-07 10:20 31.81716 -16.36953 36038 ft 427 kts 208°
2026-05-07 10:21 31.76157 -16.39506 36075 ft 431 kts 208°
2026-05-07 10:21 31.70564 -16.42070 36079 ft 431 kts 208°
2026-05-07 10:22 31.64976 -16.44629 36082 ft 431 kts 208°
2026-05-07 10:22 31.59392 -16.47182 36078 ft 431 kts 208°
2026-05-07 10:23 31.53807 -16.49733 36080 ft 431 kts 208°
2026-05-07 10:23 31.48210 -16.52287 36083 ft 432 kts 208°
2026-05-07 10:24 31.42595 -16.54798 36062 ft 436 kts 203°
2026-05-07 10:24 31.36540 -16.55813 36126 ft 450 kts 191°
2026-05-07 10:25 31.30235 -16.55420 36021 ft 469 kts 172°
2026-05-07 10:25 31.27126 -16.54241 36149 ft 468 kts 171°
2026-05-07 10:25 31.23971 -16.53691 35887 ft 447 kts 189°
2026-05-07 10:25 31.20887 -16.53761 36055 ft 450 kts 184°
2026-05-07 10:26 31.17754 -16.53331 36149 ft 449 kts 182°
2026-05-07 10:26 31.14624 -16.52999 35998 ft 455 kts 182°
2026-05-07 10:26 31.11462 -16.52680 36037 ft 458 kts 182°
2026-05-07 10:27 31.05072 -16.52026 36077 ft 462 kts 182°
2026-05-07 10:27 30.98674 -16.51370 36056 ft 462 kts 182°
2026-05-07 10:28 30.92249 -16.50713 36083 ft 464 kts 182°
2026-05-07 10:28 30.85817 -16.50056 36079 ft 464 kts 182°
2026-05-07 10:29 30.79380 -16.49399 36080 ft 464 kts 182°
2026-05-07 10:29 30.72947 -16.48744 36042 ft 464 kts 182°
2026-05-07 10:30 30.63305 -16.47763 36075 ft 466 kts 182°
2026-05-07 10:30 30.56844 -16.47107 36079 ft 466 kts 182°
2026-05-07 10:31 30.50383 -16.46451 36077 ft 466 kts 182°
2026-05-07 10:31 30.43921 -16.45797 36052 ft 467 kts 182°
2026-05-07 10:32 30.37428 -16.45140 36079 ft 469 kts 182°
2026-05-07 10:32 30.30931 -16.44484 36080 ft 469 kts 182°
2026-05-07 10:33 30.24430 -16.43828 36083 ft 469 kts 182°
2026-05-07 10:33 30.17977 -16.43178 36056 ft 469 kts 182°
2026-05-07 10:34 30.11465 -16.42523 36081 ft 470 kts 182°
2026-05-07 10:34 30.04946 -16.41868 36078 ft 470 kts 182°
2026-05-07 10:35 29.98429 -16.41214 36079 ft 470 kts 182°
2026-05-07 10:35 29.91912 -16.40560 36074 ft 470 kts 182°
2026-05-07 10:36 29.85397 -16.39909 36083 ft 470 kts 182°
2026-05-07 10:36 29.78881 -16.39257 36080 ft 470 kts 182°
2026-05-07 10:37 29.72367 -16.38607 36082 ft 470 kts 182°
2026-05-07 10:37 29.65853 -16.37957 36083 ft 470 kts 182°
2026-05-07 10:38 29.62614 -16.37847 36035 ft 459 kts 194°
2026-05-07 10:38 29.59567 -16.38600 36105 ft 440 kts 208°
2026-05-07 10:38 29.56870 -16.40136 36092 ft 429 kts 221°
2026-05-07 10:38 29.54469 -16.42074 36121 ft 427 kts 223°
2026-05-07 10:39 29.49773 -16.46218 36074 ft 424 kts 225°
2026-05-07 10:39 29.45177 -16.50478 36082 ft 424 kts 226°
2026-05-07 10:40 29.40609 -16.54767 36080 ft 424 kts 226°
2026-05-07 10:40 29.36045 -16.59058 36083 ft 424 kts 226°
2026-05-07 10:41 29.31479 -16.63347 36080 ft 425 kts 226°
2026-05-07 10:41 29.26894 -16.67648 36083 ft 426 kts 226°
2026-05-07 10:42 29.22310 -16.71945 36070 ft 426 kts 226°
2026-05-07 10:42 29.18466 -16.75542 36078 ft 426 kts 226°
2026-05-07 10:43 29.13875 -16.79834 36081 ft 426 kts 226°
2026-05-07 10:43 29.09278 -16.84128 36080 ft 427 kts 226°
2026-05-07 10:44 29.04681 -16.88415 36079 ft 426 kts 226°
2026-05-07 10:44 29.00081 -16.92701 36074 ft 427 kts 226°
2026-05-07 10:45 28.95460 -16.97002 36083 ft 429 kts 226°
2026-05-07 10:45 28.90867 -17.01270 36081 ft 429 kts 226°
2026-05-07 10:46 28.86241 -17.05565 36063 ft 428 kts 226°
2026-05-07 10:46 28.81621 -17.09850 36070 ft 428 kts 226°
2026-05-07 10:47 28.77002 -17.14127 36074 ft 428 kts 226°
2026-05-07 10:47 28.72383 -17.18400 36071 ft 428 kts 226°
2026-05-07 10:48 28.67754 -17.22678 36065 ft 429 kts 226°
2026-05-07 10:48 28.63111 -17.26963 36067 ft 430 kts 226°
2026-05-07 10:49 28.58463 -17.31247 36066 ft 430 kts 226°
2026-05-07 10:49 28.53615 -17.35262 35997 ft 442 kts 211°
2026-05-07 10:50 28.50627 -17.36276 36024 ft 457 kts 195°
2026-05-07 10:50 28.47394 -17.36310 36091 ft 475 kts 180°
2026-05-07 10:50 28.44114 -17.35547 36051 ft 487 kts 169°
2026-05-07 10:50 28.40937 -17.34126 36041 ft 495 kts 159°
2026-05-07 10:51 28.35176 -17.29660 36006 ft 511 kts 137°
2026-05-07 10:51 28.32999 -17.26541 36058 ft 513 kts 125°
2026-05-07 10:51 28.31018 -17.23159 36034 ft 517 kts 126°
2026-05-07 10:52 28.29061 -17.19780 36063 ft 502 kts 125°
2026-05-07 10:52 28.27204 -17.16506 36077 ft 488 kts 124°
2026-05-07 10:52 28.23605 -17.10061 36055 ft 481 kts 124°
2026-05-07 10:53 28.20036 -17.03656 36080 ft 480 kts 124°
2026-05-07 10:53 28.16469 -16.97267 36043 ft 479 kts 124°
2026-05-07 10:54 28.12911 -16.90902 36066 ft 478 kts 124°
2026-05-07 10:54 28.09310 -16.84572 36058 ft 478 kts 125°
2026-05-07 10:55 28.05684 -16.78255 36051 ft 478 kts 125°
2026-05-07 10:55 28.02082 -16.71986 36048 ft 465 kts 125°
2026-05-07 10:56 28.00365 -16.69000 36063 ft 453 kts 125°
2026-05-07 10:56 27.98649 -16.66031 36053 ft 450 kts 125°
2026-05-07 10:56 27.95230 -16.60118 36048 ft 448 kts 125°
2026-05-07 10:57 27.91808 -16.54227 36045 ft 448 kts 125°
2026-05-07 10:57 27.88368 -16.48346 36041 ft 449 kts 125°
2026-05-07 10:58 27.84930 -16.42469 36059 ft 448 kts 125°
2026-05-07 10:58 27.81495 -16.36601 36053 ft 448 kts 125°
2026-05-07 10:59 27.78049 -16.30732 36047 ft 447 kts 125°
2026-05-07 10:59 27.74615 -16.24897 36057 ft 446 kts 125°
2026-05-07 11:00 27.71180 -16.19064 36060 ft 446 kts 125°
2026-05-07 11:00 27.67729 -16.13243 36065 ft 445 kts 125°
2026-05-07 11:01 27.64272 -16.07450 36060 ft 445 kts 125°
2026-05-07 11:01 27.60820 -16.01666 36062 ft 444 kts 125°
2026-05-07 11:02 27.57385 -15.95928 36066 ft 444 kts 125°
2026-05-07 11:02 27.53930 -15.90170 36053 ft 443 kts 125°
2026-05-07 11:03 27.50475 -15.84416 36052 ft 443 kts 125°
2026-05-07 11:03 27.47016 -15.78661 36050 ft 443 kts 125°
2026-05-07 11:04 27.43553 -15.72930 36047 ft 442 kts 125°
2026-05-07 11:04 27.40079 -15.67211 36048 ft 442 kts 125°
2026-05-07 11:05 27.36606 -15.61501 36057 ft 441 kts 125°
2026-05-07 11:05 27.33144 -15.55830 36046 ft 439 kts 125°
2026-05-07 11:06 27.29687 -15.50170 36050 ft 439 kts 125°
2026-05-07 11:06 27.26228 -15.44510 36049 ft 439 kts 125°
2026-05-07 11:07 27.22768 -15.38851 36048 ft 439 kts 125°
2026-05-07 11:07 27.19328 -15.33236 36041 ft 438 kts 125°
2026-05-07 11:08 27.15872 -15.27613 36046 ft 437 kts 125°
2026-05-07 11:08 27.12415 -15.21993 36049 ft 438 kts 126°
2026-05-07 11:09 27.08955 -15.16374 36054 ft 437 kts 126°
2026-05-07 11:09 27.05494 -15.10761 36055 ft 437 kts 126°
2026-05-07 11:10 27.02029 -15.05144 36055 ft 437 kts 126°
2026-05-07 11:10 26.98566 -14.99534 36052 ft 437 kts 126°
2026-05-07 11:11 26.95097 -14.93919 36055 ft 437 kts 126°
2026-05-07 11:11 26.91656 -14.88321 36043 ft 435 kts 126°
2026-05-07 11:12 26.88255 -14.82787 36048 ft 434 kts 126°
2026-05-07 11:12 26.84821 -14.77209 36050 ft 435 kts 126°
2026-05-07 11:13 26.81393 -14.71640 36049 ft 435 kts 126°
2026-05-07 11:13 26.77960 -14.66068 36049 ft 434 kts 126°
2026-05-07 11:14 26.74528 -14.60503 36049 ft 434 kts 126°
2026-05-07 11:14 26.71100 -14.54935 36039 ft 434 kts 126°
2026-05-07 11:15 26.67705 -14.49387 36047 ft 432 kts 126°
2026-05-07 11:15 26.64311 -14.43846 36049 ft 432 kts 126°
2026-05-07 11:16 26.60914 -14.38303 36051 ft 432 kts 126°
2026-05-07 11:16 26.57518 -14.32769 36046 ft 432 kts 126°
2026-05-07 11:17 26.54120 -14.27237 36046 ft 432 kts 126°
2026-05-07 11:17 26.50740 -14.21740 36043 ft 432 kts 126°
2026-05-07 11:18 26.47366 -14.16199 36038 ft 431 kts 126°
2026-05-07 11:18 26.44008 -14.10667 36034 ft 430 kts 126°
2026-05-07 11:19 26.40654 -14.05135 36037 ft 431 kts 126°
2026-05-07 11:19 26.37296 -13.99603 36036 ft 430 kts 126°
2026-05-07 11:20 26.33940 -13.94079 36037 ft 430 kts 126°
2026-05-07 11:20 26.30583 -13.88558 36027 ft 430 kts 126°
2026-05-07 11:21 26.27234 -13.83038 36032 ft 430 kts 126°
2026-05-07 11:21 26.23926 -13.77551 36020 ft 429 kts 126°
2026-05-07 11:22 26.20599 -13.72034 35997 ft 429 kts 126°
2026-05-07 11:22 26.17254 -13.66475 36020 ft 429 kts 126°
2026-05-07 11:23 26.13953 -13.60991 36016 ft 429 kts 126°
2026-05-07 11:23 26.10631 -13.55476 36016 ft 429 kts 126°
2026-05-07 11:24 26.07308 -13.49965 36013 ft 429 kts 126°
2026-05-07 11:24 26.04000 -13.44447 36009 ft 428 kts 126°
2026-05-07 11:25 26.00703 -13.38943 36011 ft 428 kts 126°
2026-05-07 11:25 25.97404 -13.33441 36010 ft 428 kts 126°
2026-05-07 11:26 25.94102 -13.27935 35987 ft 428 kts 126°
2026-05-07 11:26 25.90811 -13.22436 36010 ft 428 kts 126°
2026-05-07 11:27 25.87512 -13.16928 36004 ft 428 kts 126°
2026-05-07 11:27 25.84217 -13.11421 36008 ft 428 kts 126°
2026-05-07 11:28 25.80945 -13.05921 36001 ft 427 kts 126°
2026-05-07 11:28 25.77669 -13.00421 35997 ft 427 kts 126°
2026-05-07 11:29 25.74392 -12.94920 35998 ft 427 kts 126°
2026-05-07 11:29 25.71137 -12.89459 35997 ft 427 kts 126°
2026-05-07 11:30 25.67861 -12.83968 35975 ft 427 kts 126°
2026-05-07 11:30 25.64584 -12.78468 35996 ft 428 kts 126°
2026-05-07 11:31 25.61839 -12.73852 35992 ft 428 kts 126°
2026-05-07 11:31 25.58597 -12.68389 35993 ft 426 kts 126°
2026-05-07 11:32 25.53705 -12.60152 35985 ft 427 kts 126°
2026-05-07 11:33 25.50441 -12.54662 35988 ft 427 kts 126°
2026-05-07 11:33 25.47178 -12.49177 35990 ft 427 kts 126°
2026-05-07 11:34 25.43913 -12.43695 35981 ft 426 kts 126°
2026-05-07 11:34 25.40655 -12.38209 35973 ft 427 kts 126°
2026-05-07 11:35 25.37405 -12.32696 35980 ft 429 kts 126°
2026-05-07 11:35 25.34153 -12.27178 35975 ft 428 kts 126°
2026-05-07 11:36 25.30905 -12.21671 35983 ft 428 kts 126°
2026-05-07 11:36 25.27651 -12.16160 35973 ft 428 kts 126°
2026-05-07 11:37 25.24400 -12.10662 35971 ft 428 kts 126°
2026-05-07 11:37 25.21143 -12.05159 35968 ft 428 kts 126°
2026-05-07 11:38 25.17915 -11.99691 35977 ft 428 kts 126°
2026-05-07 11:38 25.14672 -11.94188 35942 ft 428 kts 126°
2026-05-07 11:39 25.11443 -11.88652 35970 ft 431 kts 126°
2026-05-07 11:39 25.08198 -11.83095 35965 ft 430 kts 126°
2026-05-07 11:40 25.04958 -11.77547 35963 ft 430 kts 126°
2026-05-07 11:40 25.01718 -11.72007 35959 ft 430 kts 126°
2026-05-07 11:41 24.98477 -11.66470 35960 ft 430 kts 126°
2026-05-07 11:41 24.95235 -11.60935 35958 ft 430 kts 127°
2026-05-07 11:42 24.91991 -11.55402 35952 ft 430 kts 127°
2026-05-07 11:42 24.88747 -11.49875 35950 ft 430 kts 127°
2026-05-07 11:43 24.85517 -11.44334 35959 ft 431 kts 127°
2026-05-07 11:43 24.82278 -11.38767 35948 ft 431 kts 127°
2026-05-07 11:44 24.79045 -11.33216 35949 ft 431 kts 127°
2026-05-07 11:44 24.75820 -11.27651 35950 ft 431 kts 127°
2026-05-07 11:45 24.72604 -11.22082 35948 ft 431 kts 127°
2026-05-07 11:45 24.69385 -11.16513 35944 ft 431 kts 127°
2026-05-07 11:46 24.66186 -11.10985 35945 ft 431 kts 127°
2026-05-07 11:46 24.62963 -11.05426 35945 ft 431 kts 127°
2026-05-07 11:47 24.59745 -10.99871 35908 ft 431 kts 127°
2026-05-07 11:47 24.56548 -10.94283 35942 ft 433 kts 127°
2026-05-07 11:48 24.53367 -10.88667 35937 ft 433 kts 127°
2026-05-07 11:48 24.50195 -10.83058 35932 ft 432 kts 127°
2026-05-07 11:49 24.47021 -10.77449 35934 ft 432 kts 127°
2026-05-07 11:49 24.43847 -10.71842 35932 ft 432 kts 127°
2026-05-07 11:50 24.40670 -10.66237 35929 ft 432 kts 127°
2026-05-07 11:50 24.37491 -10.60634 35929 ft 432 kts 127°
2026-05-07 11:51 24.34320 -10.55033 35930 ft 432 kts 127°
2026-05-07 11:51 24.31175 -10.49425 35925 ft 431 kts 127°
2026-05-07 11:52 24.28030 -10.43822 35923 ft 432 kts 127°
2026-05-07 11:52 24.24883 -10.38222 35920 ft 432 kts 127°
2026-05-07 11:53 24.21730 -10.32617 35925 ft 432 kts 127°
2026-05-07 11:53 24.18580 -10.27023 35917 ft 431 kts 127°
2026-05-07 11:54 24.15426 -10.21426 35913 ft 431 kts 127°
2026-05-07 11:54 24.12318 -10.15855 35913 ft 431 kts 127°
2026-05-07 11:55 24.09208 -10.10247 35912 ft 431 kts 127°
2026-05-07 11:55 24.06098 -10.04643 35912 ft 431 kts 127°
2026-05-07 11:56 24.03016 -9.99021 35914 ft 431 kts 127°
2026-05-07 11:56 23.99938 -9.93368 35904 ft 432 kts 127°
2026-05-07 11:57 23.96864 -9.87723 35906 ft 432 kts 127°
2026-05-07 11:57 23.93792 -9.82080 35902 ft 432 kts 127°
2026-05-07 11:58 23.90761 -9.76417 35899 ft 431 kts 127°
2026-05-07 11:58 23.87733 -9.70756 35899 ft 431 kts 127°
2026-05-07 11:59 23.84707 -9.65101 35895 ft 431 kts 127°
2026-05-07 11:59 23.81677 -9.59444 35896 ft 431 kts 127°
2026-05-07 12:00 23.78644 -9.53786 35890 ft 431 kts 127°
2026-05-07 12:00 23.75652 -9.48152 35886 ft 432 kts 127°
2026-05-07 12:01 23.72683 -9.42437 35888 ft 433 kts 127°
2026-05-07 12:01 23.69727 -9.36715 35882 ft 433 kts 127°
2026-05-07 12:02 23.66771 -9.30995 35885 ft 433 kts 127°
2026-05-07 12:02 23.63815 -9.25279 35886 ft 433 kts 127°
2026-05-07 12:03 23.60855 -9.19560 35880 ft 433 kts 127°
2026-05-07 12:03 23.57897 -9.13848 35879 ft 433 kts 127°
2026-05-07 12:04 23.54941 -9.08137 35863 ft 433 kts 127°
2026-05-07 12:04 23.52012 -9.02414 35875 ft 433 kts 127°
2026-05-07 12:05 23.49082 -8.96688 35857 ft 432 kts 127°
2026-05-07 12:05 23.46162 -8.90956 35875 ft 434 kts 127°
2026-05-07 12:06 23.43235 -8.85208 35868 ft 434 kts 127°
2026-05-07 12:06 23.40308 -8.79463 35868 ft 433 kts 127°
2026-05-07 12:07 23.37384 -8.73725 35858 ft 434 kts 127°
2026-05-07 12:07 23.34475 -8.67981 35859 ft 433 kts 127°
2026-05-07 12:08 23.31602 -8.62265 35858 ft 433 kts 127°
2026-05-07 12:08 23.28711 -8.56520 35857 ft 433 kts 127°
2026-05-07 12:09 23.25818 -8.50773 35861 ft 433 kts 127°
2026-05-07 12:09 23.22926 -8.45033 35860 ft 433 kts 127°
2026-05-07 12:10 23.20031 -8.39292 35804 ft 433 kts 127°
2026-05-07 12:10 23.17148 -8.33544 35850 ft 434 kts 127°
2026-05-07 12:11 23.14269 -8.27771 35850 ft 434 kts 127°
2026-05-07 12:11 23.11398 -8.22013 35850 ft 433 kts 127°
2026-05-07 12:12 23.08525 -8.16258 35856 ft 433 kts 127°
2026-05-07 12:12 23.05651 -8.10505 35849 ft 433 kts 127°
2026-05-07 12:13 23.02775 -8.04752 35855 ft 433 kts 127°
2026-05-07 12:13 22.99899 -7.99000 35849 ft 433 kts 127°
2026-05-07 12:14 22.97026 -7.93258 35850 ft 433 kts 127°
2026-05-07 12:14 22.94153 -7.87517 35834 ft 433 kts 127°
2026-05-07 12:15 22.91278 -7.81775 35815 ft 433 kts 128°
2026-05-07 12:15 22.88411 -7.75998 35860 ft 437 kts 127°
2026-05-07 12:16 22.85527 -7.70188 35841 ft 437 kts 127°
2026-05-07 12:16 22.82666 -7.64428 35844 ft 437 kts 127°
2026-05-07 12:17 22.79786 -7.58630 35834 ft 437 kts 127°
2026-05-07 12:17 22.76920 -7.52817 35845 ft 437 kts 127°
2026-05-07 12:18 22.74536 -7.47985 35846 ft 437 kts 127°
2026-05-07 12:18 22.71667 -7.42166 35845 ft 437 kts 127°
2026-05-07 12:19 22.68798 -7.36352 35843 ft 437 kts 127°
2026-05-07 12:19 22.65928 -7.30546 35849 ft 437 kts 128°
2026-05-07 12:20 22.63057 -7.24740 35851 ft 437 kts 128°
2026-05-07 12:20 22.60203 -7.18928 35844 ft 437 kts 128°
2026-05-07 12:21 22.57367 -7.13090 35848 ft 438 kts 128°
2026-05-07 12:21 22.54533 -7.07261 35853 ft 438 kts 128°
2026-05-07 12:22 22.51697 -7.01431 35851 ft 438 kts 128°
2026-05-07 12:22 22.48863 -6.95609 35852 ft 438 kts 128°
2026-05-07 12:23 22.46027 -6.89786 35854 ft 438 kts 128°
2026-05-07 12:23 22.43189 -6.83962 35845 ft 437 kts 128°
2026-05-07 12:24 22.40366 -6.78149 35857 ft 436 kts 128°
2026-05-07 12:24 22.37545 -6.72339 35856 ft 436 kts 128°
2026-05-07 12:25 22.34728 -6.66539 35861 ft 436 kts 128°
2026-05-07 12:25 22.31908 -6.60737 35833 ft 436 kts 128°
2026-05-07 12:26 22.29106 -6.55002 35862 ft 435 kts 128°
2026-05-07 12:26 22.26288 -6.49233 35866 ft 434 kts 128°
2026-05-07 12:27 22.23462 -6.43477 35866 ft 433 kts 128°
2026-05-07 12:27 22.20626 -6.37744 35868 ft 433 kts 128°
2026-05-07 12:28 22.17793 -6.32018 35872 ft 433 kts 128°
2026-05-07 12:28 22.14958 -6.26295 35877 ft 432 kts 128°
2026-05-07 12:29 22.12123 -6.20573 35884 ft 432 kts 128°
2026-05-07 12:29 22.09289 -6.14849 35883 ft 432 kts 128°
2026-05-07 12:30 22.06456 -6.09130 35883 ft 432 kts 128°
2026-05-07 12:30 22.03629 -6.03402 35885 ft 433 kts 128°
2026-05-07 12:31 22.00817 -5.97660 35861 ft 434 kts 128°
2026-05-07 12:31 21.98059 -5.91872 35895 ft 439 kts 128°
2026-05-07 12:32 21.95269 -5.86030 35882 ft 438 kts 128°
2026-05-07 12:32 21.92487 -5.80202 35885 ft 438 kts 128°
2026-05-07 12:33 21.88312 -5.71464 35890 ft 438 kts 128°
2026-05-07 12:33 21.85544 -5.65611 35896 ft 440 kts 128°
2026-05-07 12:34 21.82771 -5.59735 35890 ft 440 kts 128°
2026-05-07 12:34 21.79999 -5.53863 35884 ft 440 kts 128°
2026-05-07 12:35 21.77228 -5.47999 35892 ft 439 kts 127°
2026-05-07 12:35 21.75222 -5.41709 35202 ft 468 kts 102°
2026-05-07 12:36 21.75255 -5.38087 33524 ft 505 kts 87°
2026-05-07 12:36 21.75966 -5.34245 31253 ft 542 kts 76°
2026-05-07 12:36 21.77229 -5.30325 29124 ft 564 kts 68°
2026-05-07 12:36 21.78894 -5.26485 27518 ft 565 kts 62°
2026-05-07 12:37 21.80810 -5.22852 26735 ft 551 kts 57°
2026-05-07 12:37 21.82859 -5.19481 26669 ft 524 kts 54°
2026-05-07 12:37 21.84937 -5.16425 27154 ft 486 kts 50°
2026-05-07 12:37 21.86958 -5.13715 27938 ft 443 kts 47°
2026-05-07 12:38 21.88879 -5.11334 28748 ft 400 kts 45°
2026-05-07 12:38 21.90686 -5.09245 29327 ft 364 kts 42°
2026-05-07 12:38 21.92406 -5.07376 29493 ft 340 kts 40°
2026-05-07 12:38 21.94069 -5.05667 29210 ft 331 kts 38°
2026-05-07 12:39 21.95776 -5.04002 28571 ft 334 kts 36°
2026-05-07 12:39 21.97560 -5.02340 27739 ft 345 kts 35°
2026-05-07 12:39 21.99445 -5.00652 26856 ft 359 kts 34°
2026-05-07 12:39 22.01428 -4.98932 26009 ft 372 kts 34°
2026-05-07 12:40 22.03490 -4.97185 25281 ft 381 kts 33°
2026-05-07 12:40 22.05599 -4.95426 24720 ft 384 kts 33°
2026-05-07 12:40 22.07717 -4.93678 24280 ft 382 kts 33°
2026-05-07 12:40 22.09817 -4.91956 23971 ft 376 kts 32°
2026-05-07 12:41 22.11877 -4.90273 23753 ft 367 kts 32°
2026-05-07 12:41 22.13882 -4.88638 23580 ft 356 kts 32°
2026-05-07 12:41 22.15826 -4.87047 23394 ft 346 kts 32°
2026-05-07 12:41 22.17712 -4.85496 23141 ft 337 kts 32°
2026-05-07 12:42 22.19561 -4.83975 22824 ft 331 kts 32°
2026-05-07 12:42 22.21394 -4.82478 22435 ft 328 kts 32°
2026-05-07 12:42 22.23217 -4.81003 21991 ft 328 kts 32°
2026-05-07 12:42 22.25050 -4.79535 21512 ft 329 kts 32°
2026-05-07 12:43 22.26894 -4.78068 21021 ft 330 kts 32°
2026-05-07 12:43 22.28752 -4.76597 20538 ft 332 kts 32°
2026-05-07 12:43 22.30623 -4.75131 20098 ft 333 kts 31°
2026-05-07 12:43 22.32504 -4.73678 19669 ft 332 kts 31°
2026-05-07 12:44 22.34389 -4.72242 19289 ft 331 kts 31°
2026-05-07 12:44 22.36266 -4.70819 18937 ft 329 kts 31°
2026-05-07 12:44 22.38107 -4.69428 18607 ft 326 kts 31°
2026-05-07 12:44 22.39962 -4.68040 18297 ft 323 kts 31°
2026-05-07 12:45 22.41820 -4.66684 17923 ft 321 kts 30°
2026-05-07 12:45 22.43681 -4.65367 17513 ft 319 kts 29°
2026-05-07 12:45 22.45554 -4.64086 17116 ft 318 kts 28°
2026-05-07 12:45 22.47437 -4.62851 16735 ft 316 kts 27°
2026-05-07 12:46 22.49334 -4.61653 16354 ft 315 kts 27°
2026-05-07 12:46 22.51235 -4.60496 15977 ft 313 kts 26°
2026-05-07 12:46 22.53147 -4.59377 15617 ft 311 kts 25°
2026-05-07 12:46 22.55065 -4.58306 15260 ft 309 kts 24°
2026-05-07 12:47 22.56992 -4.57285 14909 ft 307 kts 22°
2026-05-07 12:47 22.58923 -4.56314 14581 ft 305 kts 21°
2026-05-07 12:47 22.60857 -4.55391 14245 ft 303 kts 20°
2026-05-07 12:47 22.62791 -4.54507 13918 ft 301 kts 19°
2026-05-07 12:48 22.64727 -4.53664 13582 ft 299 kts 19°
2026-05-07 12:48 22.66662 -4.52859 13226 ft 297 kts 18°
2026-05-07 12:48 22.68587 -4.52094 12887 ft 294 kts 17°
2026-05-07 12:48 22.70507 -4.51370 12572 ft 290 kts 15°
2026-05-07 12:49 22.72414 -4.50698 12295 ft 286 kts 14°
2026-05-07 12:49 22.74312 -4.50079 11972 ft 284 kts 12°
2026-05-07 12:49 22.76206 -4.49506 11655 ft 281 kts 11°
2026-05-07 12:49 22.78091 -4.48976 11344 ft 279 kts 10°
2026-05-07 12:50 22.79969 -4.48485 11032 ft 276 kts
2026-05-07 12:50 22.81838 -4.48033 10718 ft 274 kts
2026-05-07 12:50 22.83697 -4.47623 10425 ft 271 kts
2026-05-07 12:50 22.85519 -4.47267 10146 ft 268 kts
2026-05-07 12:51 22.87372 -4.46951 9873 ft 264 kts
2026-05-07 12:51 22.89179 -4.46695 9580 ft 261 kts
2026-05-07 12:51 22.90950 -4.46495 9272 ft 257 kts 359°
2026-05-07 12:51 22.92727 -4.46348 8963 ft 255 kts 357°
2026-05-07 12:52 22.94487 -4.46247 8660 ft 252 kts 355°
2026-05-07 12:52 22.96234 -4.46185 8354 ft 250 kts 354°
2026-05-07 12:52 22.97967 -4.46164 8050 ft 248 kts 352°
2026-05-07 12:52 22.99687 -4.46170 7750 ft 246 kts 351°
2026-05-07 12:53 23.01393 -4.46198 7436 ft 244 kts 350°
2026-05-07 12:53 23.03084 -4.46244 7149 ft 242 kts 349°
2026-05-07 12:53 23.04756 -4.46315 6863 ft 239 kts 348°
2026-05-07 12:53 23.06413 -4.46416 6549 ft 238 kts 346°
2026-05-07 12:54 23.08056 -4.46552 6253 ft 236 kts 345°
2026-05-07 12:54 23.09689 -4.46724 5932 ft 234 kts 344°
2026-05-07 12:54 23.11299 -4.46937 5633 ft 232 kts 342°
2026-05-07 12:54 23.12884 -4.47208 5342 ft 229 kts 339°
2026-05-07 12:55 23.14434 -4.47541 5072 ft 226 kts 337°
2026-05-07 12:55 23.15951 -4.47932 4813 ft 222 kts 335°
2026-05-07 12:55 23.17429 -4.48370 4549 ft 218 kts 333°
2026-05-07 12:55 23.18871 -4.48852 4272 ft 215 kts 331°
2026-05-07 12:56 23.20285 -4.49365 3960 ft 214 kts 330°
2026-05-07 12:56 23.21683 -4.49909 3631 ft 212 kts 329°
2026-05-07 12:56 23.23047 -4.50500 3318 ft 210 kts 327°
2026-05-07 12:56 23.24356 -4.51143 3044 ft 208 kts 324°
2026-05-07 12:57 23.25640 -4.51863 2738 ft 206 kts 322°
2026-05-07 12:57 23.26877 -4.52648 2400 ft 206 kts 320°
2026-05-07 12:57 23.28081 -4.53491 2083 ft 207 kts 318°
2026-05-07 12:57 23.29264 -4.54386 1772 ft 208 kts 317°
2026-05-07 12:58 23.30400 -4.55359 1418 ft 209 kts 312°
2026-05-07 12:58 23.31350 -4.56376 1563 ft 288 kts 310°
2026-05-07 12:58 23.32734 -4.57879 1738 ft 266 kts 308°
2026-05-07 12:58 23.33837 -4.59327 2038 ft 232 kts 299°
2026-05-07 12:59 23.34596 -4.60751 2102 ft 205 kts 288°
2026-05-07 12:59 23.35038 -4.62157 1953 ft 191 kts 280°
2026-05-07 12:59 23.35276 -4.63550 1798 ft 185 kts 272°
2026-05-07 12:59 23.35371 -4.64945 1480 ft 186 kts 266°
2026-05-07 13:00 23.35315 -4.66365 1045 ft 191 kts 262°
2026-05-07 13:00 23.35144 -4.68102 1559 ft 249 kts 261°
2026-05-07 13:00 23.34976 -4.69839 1631 ft 214 kts 260°
2026-05-07 13:00 23.34804 -4.71353 1497 ft 192 kts 257°
2026-05-07 13:01 23.34598 -4.72750 1134 ft 184 kts 256°
2026-05-07 13:01 23.34372 -4.73954 1532 ft 281 kts 259°
2026-05-07 13:01 23.34156 -4.75917 1851 ft 236 kts 259°
2026-05-07 13:01 23.33975 -4.77469 2295 ft 183 kts 259°
2026-05-07 13:02 23.33857 -4.78779 2099 ft 172 kts 264°
2026-05-07 13:02 23.33826 -4.80188 1027 ft 206 kts 269°
2026-05-07 13:02 23.33867 -4.81605 1700 ft 254 kts 268°
2026-05-07 13:02 23.33945 -4.83332 2039 ft 205 kts 269°
2026-05-07 13:03 23.34029 -4.84754 2100 ft 176 kts 269°
2026-05-07 13:03 23.34078 -4.86079 1615 ft 181 kts 267°
2026-05-07 13:03 23.34122 -4.87883 1569 ft 268 kts 269°
2026-05-07 13:03 23.34239 -4.89752 1681 ft 229 kts 270°
2026-05-07 13:04 23.34341 -4.91356 1702 ft 199 kts 270°
2026-05-07 13:04 23.34478 -4.92795 1525 ft 186 kts 272°
2026-05-07 13:04 23.34756 -4.94277 1615 ft 276 kts 288°
2026-05-07 13:04 23.35468 -4.96076 1658 ft 245 kts 289°
2026-05-07 13:05 23.36130 -4.97677 1598 ft 221 kts 289°
2026-05-07 13:05 23.36728 -4.99155 1307 ft 208 kts 287°
2026-05-07 13:05 23.37289 -5.00577 998 ft 195 kts 292°
2026-05-07 13:05 23.37782 -5.01856 992 ft 171 kts 289°
2026-05-07 13:06 23.38354 -5.03270 1638 ft 265 kts 288°
2026-05-07 13:06 23.39029 -5.04942 1893 ft 218 kts 286°
2026-05-07 13:06 23.39578 -5.06367 1783 ft 197 kts 284°
2026-05-07 13:06 23.40074 -5.07796 1642 ft 292 kts 288°
2026-05-07 13:07 23.40831 -5.09705 2059 ft 247 kts 288°
2026-05-07 13:07 23.41444 -5.11223 2618 ft 196 kts 286°
2026-05-07 13:07 23.41919 -5.12519 2479 ft 180 kts 282°
2026-05-07 13:07 23.42323 -5.13874 1717 ft 201 kts 279°
2026-05-07 13:08 23.42732 -5.15606 1633 ft 281 kts 279°
2026-05-07 13:08 23.43220 -5.17507 1841 ft 241 kts 279°
2026-05-07 13:08 23.43656 -5.19131 2043 ft 207 kts 279°
2026-05-07 13:08 23.44031 -5.20537 1952 ft 188 kts 277°
2026-05-07 13:09 23.44299 -5.21927 1501 ft 190 kts 273°
2026-05-07 13:09 23.44511 -5.23676 1626 ft 281 kts 274°
2026-05-07 13:09 23.44793 -5.25645 1776 ft 245 kts 275°
2026-05-07 13:09 23.45082 -5.27344 1938 ft 212 kts 274°
2026-05-07 13:10 23.45335 -5.28833 1901 ft 190 kts 273°
2026-05-07 13:10 23.45540 -5.30216 1653 ft 183 kts 271°
2026-05-07 13:10 23.45694 -5.31621 1112 ft 193 kts 273°
2026-05-07 13:10 23.45906 -5.33285 1637 ft 262 kts 274°
2026-05-07 13:11 23.46150 -5.35111 1673 ft 227 kts 273°
2026-05-07 13:11 23.46330 -5.36721 1593 ft 203 kts 270°
2026-05-07 13:11 23.46413 -5.38196 1346 ft 189 kts 265°
2026-05-07 13:11 23.46416 -5.39291 1619 ft 275 kts 268°
2026-05-07 13:12 23.46494 -5.41228 1654 ft 242 kts 267°
2026-05-07 13:12 23.46525 -5.42951 1575 ft 214 kts 265°
2026-05-07 13:12 23.46484 -5.44507 1280 ft 199 kts 264°
2026-05-07 13:12 23.46550 -5.46426 1613 ft 278 kts 271°
2026-05-07 13:13 23.46817 -5.48355 1755 ft 237 kts 274°
2026-05-07 13:13 23.47151 -5.49984 1819 ft 206 kts 278°
2026-05-07 13:13 23.47602 -5.51400 1631 ft 195 kts 285°
2026-05-07 13:13 23.48230 -5.52739 1107 ft 205 kts 298°
2026-05-07 13:14 23.49285 -5.54238 1609 ft 281 kts 304°
2026-05-07 13:14 23.50503 -5.55736 1679 ft 248 kts 308°
2026-05-07 13:14 23.51684 -5.56972 1635 ft 226 kts 314°
2026-05-07 13:14 23.52909 -5.57989 1354 ft 219 kts 322°
2026-05-07 13:15 23.54172 -5.58860 960 ft 218 kts 329°
2026-05-07 13:15 23.55629 -5.59597 1620 ft 300 kts 335°
2026-05-07 13:15 23.57404 -5.60237 2229 ft 237 kts 339°
2026-05-07 13:15 23.58879 -5.60625 2348 ft 210 kts 343°
2026-05-07 13:16 23.60413 -5.60863 1323 ft 241 kts 352°
2026-05-07 13:16 23.62218 -5.60939 1760 ft 291 kts 357°
2026-05-07 13:16 23.64023 -5.60945 2363 ft 232 kts 358°
2026-05-07 13:16 23.65539 -5.60861 2331 ft 213 kts
2026-05-07 13:17 23.67070 -5.60692 1570 ft 234 kts
2026-05-07 13:17 23.69105 -5.60373 1700 ft 280 kts
2026-05-07 13:17 23.70895 -5.60035 1744 ft 245 kts
2026-05-07 13:17 23.72505 -5.59692 1583 ft 229 kts 13°
2026-05-07 13:18 23.74055 -5.59320 1140 ft 215 kts 14°
2026-05-07 13:18 23.75415 -5.58869 1729 ft 306 kts 18°
2026-05-07 13:18 23.77228 -5.58163 2241 ft 247 kts 20°
2026-05-07 13:18 23.78706 -5.57532 2351 ft 218 kts 22°
2026-05-07 13:19 23.80131 -5.56804 1421 ft 240 kts 26°
2026-05-07 13:19 23.81725 -5.55863 1781 ft 285 kts 30°
2026-05-07 13:19 23.83293 -5.54906 2191 ft 235 kts 32°
2026-05-07 13:19 23.84623 -5.54027 2020 ft 220 kts 34°
2026-05-07 13:20 23.85924 -5.53055 1740 ft 312 kts 36°
2026-05-07 13:20 23.87597 -5.51782 2080 ft 269 kts 37°
2026-05-07 13:20 23.88982 -5.50706 2465 ft 224 kts 37°
2026-05-07 13:20 23.90180 -5.49704 2178 ft 216 kts 40°
2026-05-07 13:21 23.91371 -5.48620 1484 ft 232 kts 43°
2026-05-07 13:21 23.92387 -5.47600 1724 ft 300 kts 43°
2026-05-07 13:21 23.93789 -5.46112 1816 ft 262 kts 48°
2026-05-07 13:21 23.94936 -5.44711 1809 ft 235 kts 54°
2026-05-07 13:22 23.95857 -5.43297 1533 ft 224 kts 62°
2026-05-07 13:22 23.96837 -5.41208 1627 ft 297 kts 68°
2026-05-07 13:22 23.97420 -5.39920 1609 ft 264 kts 67°
2026-05-07 13:22 23.98442 -5.37607 1453 ft 237 kts 67°
2026-05-07 13:23 23.98970 -5.36270 1825 ft 308 kts 68°
2026-05-07 13:23 23.99755 -5.34229 1796 ft 276 kts 69°
2026-05-07 13:23 24.00462 -5.32422 1800 ft 243 kts 70°
2026-05-07 13:23 24.01086 -5.30791 1632 ft 223 kts 72°
2026-05-07 13:24 24.01701 -5.29251 1221 ft 221 kts 66°
2026-05-07 13:24 24.02357 -5.27783 1588 ft 300 kts 65°
2026-05-07 13:24 24.03239 -5.25868 1583 ft 263 kts 68°
2026-05-07 13:24 24.03986 -5.24164 1462 ft 237 kts 68°
2026-05-07 13:25 24.04622 -5.22577 1188 ft 222 kts 67°
2026-05-07 13:25 24.05410 -5.20717 1646 ft 292 kts 66°
2026-05-07 13:25 24.06258 -5.18834 1543 ft 263 kts 63°
2026-05-07 13:25 24.07058 -5.17135 1372 ft 241 kts 63°
2026-05-07 13:26 24.07863 -5.15591 1132 ft 228 kts 59°
2026-05-07 13:26 24.08960 -5.13838 1669 ft 293 kts 56°
2026-05-07 13:26 24.10065 -5.12147 1783 ft 255 kts 56°
2026-05-07 13:26 24.11045 -5.10660 1744 ft 229 kts 56°
2026-05-07 13:27 24.11936 -5.09269 1451 ft 221 kts 57°
2026-05-07 13:27 24.12965 -5.07551 1677 ft 300 kts 57°
2026-05-07 13:27 24.14054 -5.05764 1732 ft 266 kts 58°
2026-05-07 13:27 24.15054 -5.04182 1694 ft 241 kts 58°
2026-05-07 13:28 24.16000 -5.02742 1518 ft 225 kts 57°
2026-05-07 13:28 24.16611 -5.01814 1286 ft 220 kts 56°
2026-05-07 13:28 24.17879 -4.99896 1744 ft 294 kts 56°
2026-05-07 13:28 24.19010 -4.98219 1863 ft 255 kts 57°
2026-05-07 13:29 24.19973 -4.96718 1812 ft 229 kts 58°
2026-05-07 13:29 24.20829 -4.95306 1501 ft 220 kts 58°
2026-05-07 13:29 24.21501 -4.94133 1660 ft 308 kts 59°
2026-05-07 13:29 24.22634 -4.92279 1637 ft 282 kts 59°
2026-05-07 13:30 24.23665 -4.90585 1606 ft 254 kts 60°
2026-05-07 13:30 24.24610 -4.89042 1425 ft 237 kts 57°
2026-05-07 13:30 24.25518 -4.87583 1058 ft 229 kts 57°
2026-05-07 13:30 24.26569 -4.85957 1545 ft 294 kts 56°
2026-05-07 13:31 24.27672 -4.84224 1537 ft 261 kts 56°
2026-05-07 13:31 24.28611 -4.82640 1459 ft 237 kts 58°
2026-05-07 13:31 24.29428 -4.81116 1209 ft 228 kts 63°
2026-05-07 13:31 24.30490 -4.78983 1622 ft 288 kts 64°
2026-05-07 13:32 24.31375 -4.77159 1718 ft 255 kts 65°
2026-05-07 13:32 24.32103 -4.75508 1644 ft 233 kts 69°
2026-05-07 13:32 24.32718 -4.73927 1426 ft 220 kts 68°
2026-05-07 13:32 24.33143 -4.72757 1743 ft 305 kts 68°
2026-05-07 13:33 24.33991 -4.70738 1697 ft 276 kts 66°
2026-05-07 13:33 24.34744 -4.68919 1611 ft 249 kts 68°
2026-05-07 13:33 24.35411 -4.67252 1427 ft 230 kts 68°
2026-05-07 13:33 24.36030 -4.65671 1080 ft 223 kts 68°
2026-05-07 13:34 24.36849 -4.63729 1570 ft 290 kts 68°
2026-05-07 13:34 24.38302 -4.60190 1504 ft 230 kts 73°
2026-05-07 13:34 24.38832 -4.58585 1101 ft 221 kts 76°
2026-05-07 13:35 24.39270 -4.56776 1625 ft 284 kts 78°
2026-05-07 13:35 24.39716 -4.54845 1646 ft 248 kts 79°
2026-05-07 13:35 24.40076 -4.53081 1458 ft 229 kts 84°
2026-05-07 13:35 24.40437 -4.51410 1066 ft 215 kts 67°
2026-05-07 13:36 24.41087 -4.49411 1726 ft 283 kts 72°
2026-05-07 13:36 24.41744 -4.47587 2082 ft 236 kts 71°
2026-05-07 13:36 24.42346 -4.45956 1619 ft 233 kts 73°
2026-05-07 13:36 24.43005 -4.44444 1701 ft 302 kts 66°
2026-05-07 13:37 24.43893 -4.42584 2108 ft 249 kts 66°
2026-05-07 13:37 24.44595 -4.40954 2015 ft 231 kts 70°
2026-05-07 13:37 24.45308 -4.39154 1689 ft 310 kts 68°
2026-05-07 13:37 24.46160 -4.37126 1951 ft 269 kts 68°
2026-05-07 13:38 24.46867 -4.35413 2183 ft 230 kts 71°
2026-05-07 13:38 24.47442 -4.33815 1737 ft 227 kts 73°
2026-05-07 13:38 24.47876 -4.32372 1506 ft 300 kts 73°
2026-05-07 13:38 24.48556 -4.30338 1644 ft 265 kts 73°
2026-05-07 13:39 24.49130 -4.28560 1740 ft 234 kts 74°
2026-05-07 13:39 24.49622 -4.26897 1408 ft 228 kts 77°
2026-05-07 13:39 24.50371 -4.24565 1800 ft 293 kts 71°
2026-05-07 13:39 24.51020 -4.22622 2069 ft 250 kts 72°
2026-05-07 13:40 24.51541 -4.20927 2129 ft 222 kts 76°
2026-05-07 13:40 24.51958 -4.19334 1778 ft 216 kts 81°
2026-05-07 13:40 24.52286 -4.17701 1278 ft 223 kts 81°
2026-05-07 13:40 24.52579 -4.15932 1451 ft 297 kts 83°
2026-05-07 13:41 24.52939 -4.13845 1498 ft 259 kts 85°
2026-05-07 13:41 24.53162 -4.12003 1475 ft 230 kts 90°
2026-05-07 13:41 24.53288 -4.10309 1165 ft 220 kts 90°
2026-05-07 13:41 24.53486 -4.08430 1491 ft 303 kts 85°
2026-05-07 13:42 24.53687 -4.06956 1610 ft 274 kts 88°
2026-05-07 13:42 24.54037 -4.04444 1625 ft 233 kts 88°
2026-05-07 13:42 24.54158 -4.03282 1485 ft 222 kts 89°
2026-05-07 13:42 24.54240 -4.01623 1171 ft 215 kts 92°
2026-05-07 13:43 24.54295 -3.99257 1554 ft 285 kts 91°
2026-05-07 13:43 24.54417 -3.97210 1562 ft 254 kts 89°
2026-05-07 13:43 24.54614 -3.95372 1426 ft 233 kts 86°
2026-05-07 13:43 24.54820 -3.93647 1007 ft 226 kts 88°
2026-05-07 13:44 24.55055 -3.91510 1406 ft 288 kts 85°
2026-05-07 13:44 24.55388 -3.89462 1281 ft 258 kts 83°
2026-05-07 13:44 24.55732 -3.87604 1080 ft 240 kts 83°
2026-05-07 13:44 24.56023 -3.85988 1408 ft 301 kts 77°
2026-05-07 13:45 24.56501 -3.83884 1435 ft 270 kts 80°
2026-05-07 13:45 24.56851 -3.81993 1450 ft 238 kts 85°
2026-05-07 13:45 24.57066 -3.80261 1195 ft 223 kts 87°
2026-05-07 13:45 24.57192 -3.78787 1576 ft 299 kts 86°
2026-05-07 13:46 24.57329 -3.76661 1606 ft 259 kts 91°
2026-05-07 13:46 24.57308 -3.74806 1565 ft 229 kts 99°
2026-05-07 13:46 24.57142 -3.73113 1117 ft 221 kts 101°
2026-05-07 13:46 24.56903 -3.70771 1451 ft 282 kts 99°
2026-05-07 13:47 24.56666 -3.68790 1599 ft 242 kts 102°
2026-05-07 13:47 24.56337 -3.67088 1551 ft 217 kts 111°
2026-05-07 13:47 24.55912 -3.65538 1147 ft 209 kts 117°
2026-05-07 13:47 24.55441 -3.64102 1454 ft 291 kts 114°
2026-05-07 13:48 24.54886 -3.62113 1405 ft 256 kts 111°
2026-05-07 13:48 24.54438 -3.60329 1330 ft 230 kts 110°
2026-05-07 13:48 24.54004 -3.58704 1077 ft 215 kts 112°
2026-05-07 13:48 24.53435 -3.56655 1590 ft 276 kts 112°
2026-05-07 13:49 24.52916 -3.54774 1695 ft 241 kts 114°
2026-05-07 13:49 24.52420 -3.53118 1591 ft 219 kts 118°
2026-05-07 13:49 24.51865 -3.51602 1204 ft 211 kts 117°
2026-05-07 13:49 24.51405 -3.50395 1656 ft 290 kts 116°
2026-05-07 13:50 24.50717 -3.48475 1765 ft 250 kts 117°
2026-05-07 13:50 24.50055 -3.46843 1792 ft 221 kts 122°
2026-05-07 13:50 24.49350 -3.45412 1566 ft 207 kts 128°
2026-05-07 13:50 24.48546 -3.44080 1651 ft 287 kts 126°
2026-05-07 13:51 24.47507 -3.42313 1688 ft 258 kts 126°
2026-05-07 13:51 24.46544 -3.40796 1699 ft 229 kts 131°
2026-05-07 13:51 24.45577 -3.39498 1550 ft 212 kts 137°
2026-05-07 13:51 24.44523 -3.38418 1092 ft 205 kts 144°
2026-05-07 13:52 24.43232 -3.37244 1588 ft 268 kts 143°
2026-05-07 13:52 24.41943 -3.35932 1551 ft 239 kts 138°
2026-05-07 13:52 24.40942 -3.34573 1345 ft 222 kts 127°
2026-05-07 13:52 24.40052 -3.32905 1684 ft 286 kts 120°
2026-05-07 13:53 24.39252 -3.31066 1700 ft 250 kts 118°
2026-05-07 13:53 24.38557 -3.29426 1614 ft 226 kts 120°
2026-05-07 13:53 24.37866 -3.27941 1337 ft 214 kts 125°
2026-05-07 13:53 24.37233 -3.26756 1594 ft 296 kts 120°
2026-05-07 13:54 24.36401 -3.24819 1709 ft 260 kts 120°
2026-05-07 13:54 24.35655 -3.23175 1887 ft 224 kts 125°
2026-05-07 13:54 24.34936 -3.21757 1763 ft 205 kts 129°
2026-05-07 13:54 24.34134 -3.20475 1302 ft 205 kts 134°
2026-05-07 13:55 24.32801 -3.18793 1758 ft 266 kts 137°
2026-05-07 13:55 24.31698 -3.17405 2091 ft 218 kts 138°
2026-05-07 13:55 24.30756 -3.16288 2104 ft 191 kts 142°
2026-05-07 13:55 24.29787 -3.15308 1620 ft 193 kts 148°
2026-05-07 13:56 24.29019 -3.14661 1656 ft 286 kts 146°
2026-05-07 13:56 24.27545 -3.13381 1718 ft 252 kts 148°
2026-05-07 13:56 24.26233 -3.12315 1779 ft 219 kts 151°
2026-05-07 13:56 24.25046 -3.11401 1687 ft 200 kts 152°
2026-05-07 13:57 24.23906 -3.10623 1343 ft 193 kts 155°
2026-05-07 13:57 24.22638 -3.09930 1647 ft 272 kts 156°
2026-05-07 13:57 24.21061 -3.09060 1731 ft 236 kts 160°
2026-05-07 13:57 24.19630 -3.08465 1631 ft 208 kts 170°
2026-05-07 13:58 24.18239 -3.08233 1163 ft 202 kts 180°
2026-05-07 13:58 24.16526 -3.08212 1613 ft 262 kts 182°
2026-05-07 13:58 24.14842 -3.08238 1780 ft 223 kts 187°
2026-05-07 13:58 24.13416 -3.08408 1802 ft 192 kts 194°
2026-05-07 13:59 24.12167 -3.08727 1533 ft 181 kts 200°
2026-05-07 13:59 24.11003 -3.09272 1604 ft 267 kts 209°
2026-05-07 13:59 24.09461 -3.10175 1781 ft 231 kts 210°
2026-05-07 13:59 24.08185 -3.10994 1913 ft 196 kts 215°
2026-05-07 14:00 24.07130 -3.11790 1823 ft 176 kts 219°
2026-05-07 14:00 24.06241 -3.12687 1360 ft 176 kts 226°
2026-05-07 14:00 24.05444 -3.13892 1602 ft 257 kts 237°
2026-05-07 14:00 24.04562 -3.15411 1632 ft 222 kts 237°
2026-05-07 14:01 24.03827 -3.16772 1503 ft 196 kts 238°
2026-05-07 14:01 24.03214 -3.18047 1257 ft 185 kts 240°
2026-05-07 14:01 24.02513 -3.19438 1594 ft 262 kts 240°
2026-05-07 14:01 24.01741 -3.21096 1542 ft 229 kts 242°
2026-05-07 14:02 24.01115 -3.22599 1388 ft 207 kts 245°
2026-05-07 14:02 24.00649 -3.24036 1108 ft 197 kts 250°
2026-05-07 14:02 24.00405 -3.25703 1438 ft 260 kts 263°
2026-05-07 14:02 24.00293 -3.27519 1535 ft 222 kts 263°
2026-05-07 14:03 24.00144 -3.29093 1448 ft 197 kts 258°
2026-05-07 14:03 24.00033 -3.30552 1079 ft 190 kts 263°
2026-05-07 14:03 23.99986 -3.32327 1636 ft 254 kts 266°
2026-05-07 14:03 24.00026 -3.34102 1877 ft 214 kts 267°
2026-05-07 14:04 24.00169 -3.35616 1982 ft 189 kts 271°
2026-05-07 14:04 24.00471 -3.36970 1747 ft 183 kts 281°
2026-05-07 14:04 24.01637 -3.39653 1606 ft 266 kts 295°
2026-05-07 14:05 24.02566 -3.41256 1637 ft 234 kts 298°
2026-05-07 14:05 24.03497 -3.42611 1565 ft 213 kts 304°
2026-05-07 14:05 24.04446 -3.43809 1256 ft 206 kts 311°
2026-05-07 14:05 24.06059 -3.45466 1595 ft 277 kts 314°
2026-05-07 14:06 24.07460 -3.46720 1609 ft 245 kts 316°
2026-05-07 14:06 24.08331 -3.47433 1566 ft 229 kts 318°
2026-05-07 14:06 24.09606 -3.48367 1351 ft 215 kts 325°
2026-05-07 14:06 24.11366 -3.49364 1614 ft 292 kts 334°
2026-05-07 14:07 24.13149 -3.50110 1566 ft 259 kts 336°
2026-05-07 14:07 24.14743 -3.50777 1447 ft 233 kts 332°
2026-05-07 14:07 24.16156 -3.51520 1146 ft 219 kts 331°
2026-05-07 14:07 24.17322 -3.52140 1621 ft 295 kts 333°
2026-05-07 14:08 24.19095 -3.52944 1650 ft 257 kts 332°
2026-05-07 14:08 24.20660 -3.53595 1612 ft 228 kts 333°
2026-05-07 14:08 24.22162 -3.54033 1234 ft 222 kts 347°
2026-05-07 14:08 24.24290 -3.54324 1616 ft 293 kts 352°
2026-05-07 14:09 24.26189 -3.54493 1726 ft 255 kts 351°
2026-05-07 14:09 24.27861 -3.54576 1674 ft 228 kts 352°
2026-05-07 14:09 24.29402 -3.54576 1382 ft 217 kts 359°
2026-05-07 14:09 24.31008 -3.54528 1736 ft 297 kts
2026-05-07 14:10 24.32955 -3.54405 1718 ft 264 kts
2026-05-07 14:10 24.34686 -3.54207 1613 ft 238 kts
2026-05-07 14:10 24.36269 -3.53846 1295 ft 229 kts 13°
2026-05-07 14:10 24.37820 -3.53284 1648 ft 306 kts 19°
2026-05-07 14:11 24.39675 -3.52497 1593 ft 269 kts 20°
2026-05-07 14:11 24.41303 -3.51754 1585 ft 240 kts 22°
2026-05-07 14:11 24.42781 -3.51009 1299 ft 230 kts 26°
2026-05-07 14:11 24.44150 -3.50251 1248 ft 194 kts 25°
2026-05-07 14:12 24.45567 -3.49543 1713 ft 306 kts 24°
2026-05-07 14:12 24.47318 -3.48663 2264 ft 248 kts 22°
2026-05-07 14:12 24.48770 -3.47918 2346 ft 220 kts 24°
2026-05-07 14:12 24.50176 -3.47188 1699 ft 232 kts 25°
2026-05-07 14:13 24.51921 -3.46276 1607 ft 299 kts 24°
2026-05-07 14:13 24.53650 -3.45339 1785 ft 256 kts 26°
2026-05-07 14:13 24.54661 -3.44776 1854 ft 236 kts 26°
2026-05-07 14:13 24.56080 -3.43993 1676 ft 224 kts 24°
2026-05-07 14:14 24.57493 -3.43221 1663 ft 309 kts 26°
2026-05-07 14:14 24.59319 -3.42197 1766 ft 276 kts 25°
2026-05-07 14:14 24.60929 -3.41293 1743 ft 247 kts 24°
2026-05-07 14:14 24.62419 -3.40491 1590 ft 233 kts 23°
2026-05-07 14:15 24.63869 -3.39782 1173 ft 230 kts 21°
2026-05-07 14:15 24.65684 -3.39032 1665 ft 293 kts 19°
2026-05-07 14:15 24.67463 -3.38308 1756 ft 254 kts 18°
2026-05-07 14:15 24.69052 -3.37709 1675 ft 231 kts 16°
2026-05-07 14:16 24.70562 -3.37200 1335 ft 224 kts 15°
2026-05-07 14:16 24.72021 -3.36763 1200 ft 192 kts
2026-05-07 14:16 24.73625 -3.36533 1602 ft 307 kts
2026-05-07 14:16 24.75534 -3.36278 2129 ft 245 kts
2026-05-07 14:17 24.77073 -3.35997 2303 ft 212 kts
2026-05-07 14:17 24.78556 -3.35674 1555 ft 230 kts
2026-05-07 14:17 24.80019 -3.35337 1584 ft 303 kts 11°
2026-05-07 14:17 24.81910 -3.34870 1858 ft 255 kts 11°
2026-05-07 14:18 24.83496 -3.34426 1980 ft 220 kts 13°
2026-05-07 14:18 24.84935 -3.33950 1571 ft 217 kts 16°
2026-05-07 14:18 24.86816 -3.33337 1507 ft 301 kts 14°
2026-05-07 14:18 24.88692 -3.32740 1649 ft 261 kts 14°
2026-05-07 14:19 24.90343 -3.32283 1596 ft 232 kts
2026-05-07 14:19 24.91903 -3.31995 1281 ft 226 kts
2026-05-07 14:19 24.93225 -3.31831 1439 ft 314 kts
2026-05-07 14:19 24.95300 -3.31540 1551 ft 281 kts
2026-05-07 14:20 24.97114 -3.31276 1678 ft 246 kts
2026-05-07 14:20 24.98719 -3.31021 1653 ft 222 kts
2026-05-07 14:20 25.00191 -3.30743 1330 ft 215 kts
2026-05-07 14:20 25.01722 -3.30427 1448 ft 314 kts
2026-05-07 14:21 25.03750 -3.29931 1510 ft 279 kts 11°
2026-05-07 14:21 25.05530 -3.29483 1590 ft 247 kts 11°
2026-05-07 14:21 25.07128 -3.29082 1458 ft 226 kts
2026-05-07 14:21 25.08635 -3.28739 1137 ft 217 kts
2026-05-07 14:22 25.10087 -3.28466 977 ft 194 kts
2026-05-07 14:22 25.11541 -3.28393 1453 ft 302 kts 358°
2026-05-07 14:22 25.13503 -3.28364 1514 ft 262 kts 356°
2026-05-07 14:22 25.15199 -3.28418 1482 ft 230 kts 352°
2026-05-07 14:23 25.16751 -3.28619 1023 ft 225 kts 347°
2026-05-07 14:23 25.18019 -3.28938 1451 ft 303 kts 346°
2026-05-07 14:23 25.19974 -3.29328 1641 ft 262 kts 344°
2026-05-07 14:23 25.21609 -3.29666 1760 ft 225 kts 345°
2026-05-07 14:24 25.23108 -3.29990 1490 ft 213 kts 343°
2026-05-07 14:24 25.24682 -3.30426 1402 ft 296 kts 342°
2026-05-07 14:24 25.26570 -3.30982 1401 ft 264 kts 341°
2026-05-07 14:24 25.28225 -3.31472 1442 ft 231 kts 338°
2026-05-07 14:25 25.29709 -3.31946 1224 ft 215 kts 337°
2026-05-07 14:25 25.31094 -3.32496 1411 ft 298 kts 335°
2026-05-07 14:25 25.32917 -3.33260 1463 ft 263 kts 334°
2026-05-07 14:25 25.34505 -3.33936 1477 ft 229 kts 334°
2026-05-07 14:26 25.35903 -3.34584 1222 ft 211 kts 332°
2026-05-07 14:26 25.37085 -3.35170 1425 ft 297 kts 335°
2026-05-07 14:26 25.38914 -3.35946 1350 ft 264 kts 335°
2026-05-07 14:26 25.40512 -3.36627 1356 ft 231 kts 334°
2026-05-07 14:27 25.41883 -3.37307 1261 ft 210 kts 329°